| time (UTC) | temp F | wind direction | speed MPH | gust MPH | rain 1hr in | rain 24hr in | rain mn in | humidity % | barometer mb |
| 20260506051304 | 56 | 69 | 14.0 | 16.0 | 0.00 | 0.22 | 0.20 | 68 | 1011.6 |
| 20260506051103 | 56 | 73 | 11.0 | 15.0 | 0.00 | 0.22 | 0.20 | 69 | 1011.4 |
| 20260506051004 | 56 | 80 | 8.0 | 13.0 | 0.00 | 0.22 | 0.20 | 68 | 1011.1 |
| 20260506050904 | 56 | 86 | 7.0 | 10.0 | 0.00 | 0.22 | 0.20 | 67 | 1010.9 |
| 20260506050803 | 55 | 92 | 6.0 | 8.0 | 0.00 | 0.22 | 0.20 | 67 | 1010.4 |
| 20260506050704 | 54 | 92 | 4.0 | 8.0 | 0.00 | 0.22 | 0.20 | 70 | 1010.1 |
| 20260506050503 | 54 | 92 | 4.0 | 8.0 | 0.00 | 0.22 | 0.20 | 70 | 1010.0 |
| 20260506050404 | 54 | 92 | 4.0 | 8.0 | 0.00 | 0.22 | 0.20 | 70 | 1009.8 |
| 20260506050303 | 54 | 92 | 4.0 | 8.0 | 0.00 | 0.22 | 0.20 | 70 | 1009.9 |
| 20260506050204 | 54 | 92 | 4.0 | 8.0 | 0.00 | 0.22 | 0.20 | 70 | 1009.8 |
| 20260506050104 | 54 | 93 | 4.0 | 8.0 | 0.00 | 0.22 | 0.20 | 70 | 1009.8 |
| 20260506045104 | 54 | 108 | 2.0 | 7.0 | 0.00 | 0.22 | 0.20 | 70 | 1009.5 |
| 20260506044904 | 54 | 92 | 2.0 | 8.0 | 0.00 | 0.22 | 0.20 | 70 | 1009.6 |
| 20260506044804 | 54 | 85 | 2.0 | 8.0 | 0.00 | 0.23 | 0.20 | 70 | 1009.6 |
| 20260506044703 | 54 | 84 | 3.0 | 8.0 | 0.00 | 0.23 | 0.20 | 71 | 1009.6 |
| 20260506044604 | 54 | 83 | 4.0 | 8.0 | 0.00 | 0.23 | 0.20 | 71 | 1009.7 |
| 20260506044504 | 54 | 83 | 4.0 | 8.0 | 0.00 | 0.23 | 0.20 | 71 | 1009.6 |
| 20260506044404 | 54 | 83 | 4.0 | 8.0 | 0.00 | 0.23 | 0.20 | 71 | 1009.6 |
| 20260506044304 | 54 | 83 | 4.0 | 8.0 | 0.00 | 0.23 | 0.20 | 71 | 1009.5 |
| 20260506044203 | 54 | 86 | 4.0 | 8.0 | 0.00 | 0.23 | 0.20 | 71 | 1009.5 |
| 20260506044104 | 54 | 86 | 4.0 | 8.0 | 0.00 | 0.23 | 0.20 | 71 | 1009.5 |
| 20260506044004 | 54 | 85 | 5.0 | 8.0 | 0.00 | 0.23 | 0.20 | 71 | 1009.6 |
| 20260506043804 | 54 | 92 | 5.0 | 8.0 | 0.00 | 0.23 | 0.20 | 71 | 1009.5 |
| 20260506043703 | 54 | 99 | 5.0 | 8.0 | 0.00 | 0.23 | 0.20 | 70 | 1009.5 |
| 20260506043604 | 54 | 103 | 4.0 | 6.0 | 0.00 | 0.23 | 0.20 | 70 | 1009.4 |
| 20260506043503 | 54 | 106 | 4.0 | 6.0 | 0.00 | 0.23 | 0.20 | 70 | 1009.5 |
| 20260506043403 | 54 | 109 | 4.0 | 6.0 | 0.00 | 0.23 | 0.20 | 70 | 1009.4 |
| 20260506043103 | 54 | 118 | 4.0 | 5.0 | 0.00 | 0.23 | 0.20 | 68 | 1009.3 |
| 20260506043004 | 54 | 126 | 3.0 | 5.0 | 0.00 | 0.23 | 0.20 | 68 | 1009.3 |
| 20260506042903 | 54 | 132 | 2.0 | 4.0 | 0.00 | 0.23 | 0.20 | 67 | 1009.4 |
| 20260506042804 | 54 | 133 | 2.0 | 4.0 | 0.00 | 0.23 | 0.20 | 67 | 1009.3 |
| 20260506042504 | 54 | 136 | 2.0 | 4.0 | 0.00 | 0.24 | 0.20 | 66 | 1009.2 |
| 20260506042403 | 54 | 138 | 2.0 | 4.0 | 0.00 | 0.24 | 0.20 | 65 | 1009.1 |
| 20260506042204 | 54 | 137 | 2.0 | 4.0 | 0.00 | 0.24 | 0.20 | 65 | 1009.2 |
| 20260506042103 | 54 | 141 | 2.0 | 4.0 | 0.00 | 0.24 | 0.20 | 65 | 1009.2 |
| 20260506041904 | 54 | 0 | 0.0 | 2.0 | 0.00 | 0.24 | 0.20 | 65 | 1009.1 |
| 20260506041803 | 54 | 0 | 0.0 | 2.0 | 0.00 | 0.24 | 0.20 | 65 | 1009.0 |
| 20260506041704 | 54 | 0 | 0.0 | 2.0 | 0.00 | 0.24 | 0.20 | 65 | 1009.0 |
| 20260506041603 | 54 | 0 | 0.0 | 2.0 | 0.00 | 0.24 | 0.20 | 65 | 1008.9 |
| 20260506041503 | 55 | 154 | 1.0 | 2.0 | 0.00 | 0.24 | 0.20 | 65 | 1009.1 |
| 20260506041404 | 55 | 0 | 0.0 | 2.0 | 0.00 | 0.24 | 0.20 | 65 | 1008.9 |
| 20260506041204 | 55 | 194 | 1.0 | 2.0 | 0.00 | 0.24 | 0.20 | 64 | 1009.0 |
| 20260506041104 | 55 | 0 | 0.0 | 2.0 | 0.00 | 0.24 | 0.20 | 64 | 1009.1 |
| 20260506040904 | 55 | 224 | 1.0 | 2.0 | 0.00 | 0.24 | 0.20 | 64 | 1009.1 |
| 20260506040804 | 56 | 0 | 0.0 | 2.0 | 0.00 | 0.24 | 0.20 | 63 | 1009.0 |
| 20260506040703 | 56 | 0 | 0.0 | 2.0 | 0.00 | 0.24 | 0.20 | 63 | 1009.0 |
| 20260506040604 | 56 | 0 | 0.0 | 2.0 | 0.00 | 0.24 | 0.20 | 63 | 1009.0 |
| 20260506040503 | 56 | 0 | 0.0 | 3.0 | 0.00 | 0.24 | 0.20 | 63 | 1009.0 |
| 20260506040403 | 56 | 0 | 0.0 | 3.0 | 0.00 | 0.24 | 0.20 | 63 | 1009.0 |
| 20260506040304 | 56 | 0 | 0.0 | 4.0 | 0.00 | 0.24 | 0.20 | 63 | 1009.0 |
| 20260506040203 | 56 | 0 | 0.0 | 4.0 | 0.00 | 0.24 | 0.20 | 63 | 1009.0 |
| 20260506035903 | 56 | 127 | 1.0 | 4.0 | 0.00 | 0.24 | 0.20 | 63 | 1009.1 |
| 20260506035804 | 56 | 0 | 0.0 | 4.0 | 0.00 | 0.24 | 0.20 | 63 | 1009.1 |
| 20260506035704 | 56 | 0 | 0.0 | 4.0 | 0.00 | 0.24 | 0.20 | 62 | 1008.9 |
| 20260506035603 | 56 | 121 | 1.0 | 4.0 | 0.00 | 0.24 | 0.20 | 62 | 1008.9 |
| 20260506035504 | 56 | 128 | 1.0 | 4.0 | 0.00 | 0.24 | 0.20 | 62 | 1008.9 |
| 20260506035403 | 56 | 127 | 2.0 | 4.0 | 0.00 | 0.24 | 0.20 | 62 | 1009.0 |
| 20260506035306 | 56 | 132 | 1.0 | 4.0 | 0.00 | 0.24 | 0.20 | 62 | 1008.9 |
| 20260506035204 | 56 | 126 | 1.0 | 4.0 | 0.00 | 0.24 | 0.20 | 61 | 1008.9 |
| 20260506035104 | 56 | 126 | 1.0 | 4.0 | 0.00 | 0.24 | 0.20 | 61 | 1008.9 |
| 20260506034903 | 57 | 127 | 1.0 | 4.0 | 0.00 | 0.24 | 0.20 | 61 | 1008.9 |
| 20260506034804 | 57 | 124 | 1.0 | 4.0 | 0.00 | 0.24 | 0.20 | 61 | 1009.0 |
| 20260506034703 | 57 | 123 | 1.0 | 4.0 | 0.00 | 0.24 | 0.20 | 61 | 1008.9 |
| 20260506034604 | 57 | 128 | 1.0 | 4.0 | 0.00 | 0.24 | 0.20 | 61 | 1008.9 |
| 20260506034503 | 57 | 131 | 1.0 | 4.0 | 0.00 | 0.24 | 0.20 | 61 | 1008.9 |
| 20260506034404 | 57 | 127 | 2.0 | 5.0 | 0.00 | 0.24 | 0.20 | 60 | 1008.9 |
| 20260506034304 | 57 | 120 | 2.0 | 5.0 | 0.00 | 0.24 | 0.20 | 60 | 1008.9 |
| 20260506034203 | 57 | 124 | 2.0 | 5.0 | 0.00 | 0.24 | 0.20 | 60 | 1008.9 |
| 20260506034104 | 57 | 130 | 2.0 | 5.0 | 0.00 | 0.24 | 0.20 | 60 | 1008.8 |
| 20260506034004 | 57 | 127 | 2.0 | 5.0 | 0.00 | 0.24 | 0.20 | 60 | 1008.9 |
| 20260506033904 | 57 | 133 | 2.0 | 5.0 | 0.00 | 0.24 | 0.20 | 60 | 1008.8 |
| 20260506033804 | 57 | 136 | 2.0 | 5.0 | 0.00 | 0.24 | 0.20 | 60 | 1008.9 |
| 20260506033704 | 57 | 136 | 1.0 | 5.0 | 0.00 | 0.24 | 0.20 | 60 | 1008.8 |
| 20260506033504 | 57 | 128 | 2.0 | 5.0 | 0.00 | 0.24 | 0.20 | 60 | 1008.8 |
| 20260506033404 | 57 | 126 | 2.0 | 5.0 | 0.00 | 0.24 | 0.20 | 60 | 1008.7 |
| 20260506033203 | 57 | 133 | 2.0 | 4.0 | 0.00 | 0.24 | 0.20 | 60 | 1008.7 |
| 20260506033104 | 57 | 132 | 2.0 | 4.0 | 0.00 | 0.24 | 0.20 | 60 | 1008.6 |
| 20260506033004 | 57 | 132 | 2.0 | 4.0 | 0.00 | 0.24 | 0.20 | 60 | 1008.6 |
| 20260506032804 | 57 | 126 | 2.0 | 5.0 | 0.00 | 0.24 | 0.20 | 60 | 1008.7 |
| 20260506032704 | 57 | 126 | 2.0 | 5.0 | 0.00 | 0.24 | 0.20 | 60 | 1008.6 |
| 20260506032604 | 57 | 133 | 2.0 | 5.0 | 0.00 | 0.24 | 0.20 | 60 | 1008.6 |
| 20260506032404 | 57 | 140 | 1.0 | 5.0 | 0.00 | 0.24 | 0.20 | 59 | 1008.6 |
| 20260506032305 | 57 | 139 | 2.0 | 5.0 | 0.00 | 0.24 | 0.20 | 59 | 1008.7 |
| 20260506032104 | 57 | 135 | 2.0 | 5.0 | 0.00 | 0.24 | 0.20 | 59 | 1008.7 |
| 20260506032004 | 57 | 135 | 3.0 | 5.0 | 0.00 | 0.24 | 0.20 | 59 | 1008.7 |
| 20260506031903 | 57 | 135 | 2.0 | 5.0 | 0.00 | 0.24 | 0.20 | 59 | 1008.7 |
| 20260506031804 | 57 | 139 | 2.0 | 5.0 | 0.00 | 0.24 | 0.20 | 59 | 1008.6 |
| 20260506031704 | 57 | 135 | 2.0 | 5.0 | 0.00 | 0.24 | 0.20 | 59 | 1008.5 |
| 20260506031604 | 57 | 132 | 1.0 | 5.0 | 0.00 | 0.24 | 0.20 | 59 | 1008.5 |
| 20260506031504 | 57 | 0 | 0.0 | 5.0 | 0.00 | 0.24 | 0.20 | 59 | 1008.5 |
| 20260506031403 | 57 | 130 | 2.0 | 5.0 | 0.00 | 0.24 | 0.20 | 59 | 1008.5 |
| 20260506031203 | 57 | 131 | 2.0 | 5.0 | 0.00 | 0.24 | 0.20 | 59 | 1008.5 |
| 20260506031004 | 57 | 131 | 2.0 | 5.0 | 0.00 | 0.24 | 0.20 | 59 | 1008.5 |
| 20260506030804 | 58 | 133 | 2.0 | 4.0 | 0.00 | 0.24 | 0.20 | 59 | 1008.5 |
| 20260506030704 | 58 | 141 | 2.0 | 4.0 | 0.00 | 0.24 | 0.20 | 58 | 1008.5 |
| 20260506030603 | 58 | 142 | 2.0 | 4.0 | 0.00 | 0.24 | 0.20 | 58 | 1008.4 |
| 20260506030504 | 58 | 142 | 2.0 | 4.0 | 0.00 | 0.24 | 0.20 | 58 | 1008.5 |
| 20260506030403 | 58 | 142 | 2.0 | 4.0 | 0.00 | 0.24 | 0.20 | 58 | 1008.5 |
| 20260506030304 | 58 | 142 | 2.0 | 4.0 | 0.00 | 0.24 | 0.20 | 58 | 1008.4 |
| 20260506030204 | 58 | 142 | 2.0 | 4.0 | 0.00 | 0.24 | 0.20 | 58 | 1008.4 |
| 20260506030103 | 58 | 142 | 2.0 | 4.0 | 0.00 | 0.24 | 0.20 | 58 | 1008.5 |
| 20260506030004 | 58 | 144 | 2.0 | 4.0 | 0.00 | 0.24 | 0.20 | 57 | 1008.4 |
| 20260506025903 | 58 | 142 | 2.0 | 4.0 | 0.00 | 0.24 | 0.20 | 57 | 1008.4 |
| 20260506025804 | 58 | 142 | 1.0 | 4.0 | 0.00 | 0.24 | 0.20 | 57 | 1008.4 |
| 20260506025703 | 58 | 135 | 2.0 | 4.0 | 0.00 | 0.24 | 0.20 | 57 | 1008.4 |
| 20260506025604 | 58 | 131 | 2.0 | 4.0 | 0.00 | 0.24 | 0.20 | 56 | 1008.4 |
| 20260506025504 | 59 | 129 | 2.0 | 4.0 | 0.00 | 0.24 | 0.20 | 56 | 1008.4 |
| 20260506025305 | 59 | 133 | 2.0 | 4.0 | 0.00 | 0.24 | 0.20 | 56 | 1008.4 |
| 20260506025203 | 59 | 133 | 1.0 | 4.0 | 0.00 | 0.24 | 0.20 | 55 | 1008.5 |
| 20260506025104 | 59 | 0 | 0.0 | 4.0 | 0.00 | 0.24 | 0.20 | 55 | 1008.4 |
| 20260506025003 | 59 | 132 | 1.0 | 4.0 | 0.00 | 0.24 | 0.20 | 55 | 1008.4 |
| 20260506024904 | 59 | 0 | 0.0 | 4.0 | 0.00 | 0.24 | 0.20 | 55 | 1008.4 |
| 20260506024804 | 59 | 0 | 0.0 | 4.0 | 0.00 | 0.24 | 0.20 | 54 | 1008.4 |
| 20260506024703 | 59 | 136 | 2.0 | 4.0 | 0.00 | 0.24 | 0.20 | 54 | 1008.4 |
| 20260506024604 | 59 | 138 | 1.0 | 4.0 | 0.00 | 0.24 | 0.20 | 54 | 1008.3 |
| 20260506024503 | 60 | 0 | 0.0 | 4.0 | 0.00 | 0.24 | 0.20 | 54 | 1008.3 |
| 20260506024404 | 60 | 127 | 2.0 | 4.0 | 0.00 | 0.24 | 0.20 | 54 | 1008.3 |
| 20260506024303 | 60 | 124 | 2.0 | 4.0 | 0.00 | 0.24 | 0.20 | 53 | 1008.2 |
| 20260506024204 | 60 | 119 | 2.0 | 4.0 | 0.00 | 0.24 | 0.20 | 53 | 1008.3 |
| 20260506024104 | 60 | 124 | 1.0 | 4.0 | 0.00 | 0.24 | 0.20 | 53 | 1008.3 |
| 20260506023903 | 60 | 128 | 1.0 | 4.0 | 0.00 | 0.24 | 0.20 | 52 | 1008.2 |
| 20260506023603 | 61 | 135 | 1.0 | 4.0 | 0.00 | 0.24 | 0.20 | 51 | 1008.2 |
| 20260506023504 | 61 | 143 | 2.0 | 4.0 | 0.00 | 0.24 | 0.20 | 51 | 1008.2 |
| 20260506023304 | 61 | 151 | 2.0 | 4.0 | 0.00 | 0.24 | 0.20 | 50 | 1008.1 |
| 20260506023204 | 62 | 154 | 2.0 | 5.0 | 0.00 | 0.24 | 0.20 | 50 | 1008.2 |
| 20260506023103 | 62 | 146 | 2.0 | 5.0 | 0.00 | 0.24 | 0.20 | 50 | 1008.2 |
| 20260506023004 | 62 | 140 | 2.0 | 5.0 | 0.00 | 0.24 | 0.20 | 49 | 1008.3 |
| 20260506022805 | 62 | 125 | 2.0 | 5.0 | 0.00 | 0.24 | 0.20 | 48 | 1008.1 |
| 20260506022604 | 63 | 135 | 2.0 | 5.0 | 0.00 | 0.24 | 0.20 | 48 | 1008.2 |
| 20260506022504 | 63 | 135 | 2.0 | 5.0 | 0.00 | 0.24 | 0.20 | 47 | 1008.2 |
| 20260506022306 | 63 | 130 | 2.0 | 5.0 | 0.00 | 0.24 | 0.20 | 47 | 1008.2 |
| 20260506022204 | 63 | 124 | 2.0 | 5.0 | 0.00 | 0.24 | 0.20 | 47 | 1008.2 |
| 20260506022103 | 63 | 122 | 3.0 | 5.0 | 0.00 | 0.24 | 0.20 | 47 | 1008.1 |
| 20260506022004 | 63 | 133 | 2.0 | 5.0 | 0.00 | 0.24 | 0.20 | 47 | 1008.0 |
| 20260506021903 | 64 | 143 | 2.0 | 5.0 | 0.00 | 0.24 | 0.20 | 47 | 1008.1 |
| 20260506021804 | 64 | 136 | 2.0 | 5.0 | 0.00 | 0.24 | 0.20 | 47 | 1008.0 |
| 20260506021704 | 64 | 133 | 2.0 | 5.0 | 0.00 | 0.24 | 0.20 | 47 | 1008.0 |
| 20260506021603 | 64 | 125 | 2.0 | 7.0 | 0.00 | 0.24 | 0.20 | 46 | 1008.1 |
| 20260506021504 | 64 | 121 | 2.0 | 7.0 | 0.00 | 0.24 | 0.20 | 46 | 1008.1 |
| 20260506021404 | 64 | 123 | 2.0 | 7.0 | 0.00 | 0.24 | 0.20 | 46 | 1008.1 |
| 20260506021303 | 64 | 127 | 2.0 | 7.0 | 0.00 | 0.24 | 0.20 | 45 | 1008.1 |
| 20260506021204 | 64 | 134 | 2.0 | 7.0 | 0.00 | 0.24 | 0.20 | 45 | 1008.0 |
| 20260506021104 | 64 | 136 | 2.0 | 7.0 | 0.00 | 0.24 | 0.20 | 45 | 1008.2 |
| 20260506021004 | 64 | 134 | 2.0 | 7.0 | 0.00 | 0.24 | 0.20 | 44 | 1008.0 |
| 20260506020803 | 64 | 134 | 2.0 | 7.0 | 0.00 | 0.24 | 0.20 | 44 | 1008.2 |
| 20260506020704 | 65 | 131 | 4.0 | 7.0 | 0.00 | 0.24 | 0.20 | 43 | 1008.1 |
| 20260506020604 | 65 | 131 | 4.0 | 7.0 | 0.00 | 0.24 | 0.20 | 43 | 1008.1 |
| 20260506020503 | 65 | 133 | 4.0 | 7.0 | 0.00 | 0.24 | 0.20 | 43 | 1008.0 |
| 20260506020404 | 65 | 130 | 4.0 | 7.0 | 0.00 | 0.24 | 0.20 | 43 | 1008.1 |
| 20260506020204 | 65 | 123 | 4.0 | 7.0 | 0.00 | 0.24 | 0.20 | 43 | 1008.0 |
| 20260506015904 | 65 | 123 | 3.0 | 6.0 | 0.00 | 0.24 | 0.20 | 43 | 1008.0 |
| 20260506015703 | 65 | 135 | 2.0 | 7.0 | 0.00 | 0.24 | 0.20 | 43 | 1008.1 |
| 20260506015604 | 65 | 132 | 2.0 | 7.0 | 0.00 | 0.24 | 0.20 | 42 | 1008.1 |
| 20260506015203 | 65 | 130 | 2.0 | 7.0 | 0.00 | 0.24 | 0.20 | 42 | 1008.0 |
| 20260506015104 | 65 | 117 | 2.0 | 7.0 | 0.00 | 0.24 | 0.20 | 41 | 1008.0 |
| 20260506014904 | 65 | 122 | 3.0 | 7.0 | 0.00 | 0.24 | 0.20 | 40 | 1008.0 |
| 20260506014804 | 65 | 113 | 3.0 | 6.0 | 0.00 | 0.24 | 0.20 | 41 | 1007.9 |
| 20260506014704 | 65 | 117 | 2.0 | 6.0 | 0.00 | 0.24 | 0.20 | 41 | 1008.0 |
| 20260506014604 | 66 | 120 | 2.0 | 6.0 | 0.00 | 0.24 | 0.20 | 41 | 1008.0 |
| 20260506014503 | 66 | 125 | 2.0 | 6.0 | 0.00 | 0.24 | 0.20 | 41 | 1008.1 |
| 20260506014404 | 66 | 137 | 2.0 | 6.0 | 0.00 | 0.24 | 0.20 | 41 | 1008.0 |
| 20260506014304 | 66 | 130 | 2.0 | 6.0 | 0.00 | 0.24 | 0.20 | 41 | 1008.0 |
| 20260506014204 | 66 | 124 | 2.0 | 6.0 | 0.00 | 0.24 | 0.20 | 41 | 1007.9 |
| 20260506013804 | 66 | 126 | 2.0 | 6.0 | 0.00 | 0.24 | 0.20 | 40 | 1008.0 |
| 20260506013604 | 66 | 135 | 2.0 | 6.0 | 0.00 | 0.24 | 0.20 | 40 | 1008.0 |
| 20260506013503 | 66 | 134 | 2.0 | 6.0 | 0.00 | 0.24 | 0.20 | 41 | 1008.0 |
| 20260506013404 | 66 | 133 | 2.0 | 7.0 | 0.00 | 0.24 | 0.20 | 41 | 1008.1 |
| 20260506013303 | 66 | 140 | 2.0 | 7.0 | 0.00 | 0.24 | 0.20 | 41 | 1008.1 |
| 20260506013104 | 66 | 142 | 2.0 | 7.0 | 0.00 | 0.24 | 0.20 | 40 | 1008.0 |
| 20260506013003 | 66 | 148 | 2.0 | 7.0 | 0.00 | 0.24 | 0.20 | 40 | 1008.1 |
| 20260506012903 | 66 | 175 | 3.0 | 7.0 | 0.00 | 0.24 | 0.20 | 40 | 1008.1 |
| 20260506012503 | 66 | 310 | 3.0 | 7.0 | 0.00 | 0.24 | 0.20 | 39 | 1008.1 |
| 20260506012405 | 66 | 311 | 2.0 | 7.0 | 0.00 | 0.24 | 0.20 | 39 | 1008.2 |
| 20260506012204 | 67 | 322 | 3.0 | 7.0 | 0.00 | 0.24 | 0.20 | 39 | 1008.2 |
| 20260506012104 | 67 | 326 | 3.0 | 7.0 | 0.00 | 0.24 | 0.20 | 39 | 1008.1 |
| 20260506012004 | 67 | 317 | 3.0 | 7.0 | 0.00 | 0.24 | 0.20 | 39 | 1008.2 |
| 20260506011903 | 67 | 316 | 3.0 | 7.0 | 0.00 | 0.24 | 0.20 | 39 | 1008.1 |
| 20260506011804 | 67 | 318 | 3.0 | 7.0 | 0.00 | 0.24 | 0.20 | 39 | 1008.1 |
| 20260506011704 | 67 | 350 | 3.0 | 7.0 | 0.00 | 0.24 | 0.20 | 39 | 1008.2 |
| 20260506011603 | 67 | 104 | 3.0 | 7.0 | 0.00 | 0.24 | 0.20 | 39 | 1008.1 |
| 20260506011504 | 67 | 106 | 3.0 | 7.0 | 0.00 | 0.24 | 0.20 | 39 | 1008.2 |
| 20260506011403 | 67 | 114 | 4.0 | 7.0 | 0.00 | 0.24 | 0.20 | 39 | 1008.2 |
| 20260506011304 | 67 | 122 | 3.0 | 6.0 | 0.00 | 0.24 | 0.20 | 38 | 1008.1 |
| 20260506011204 | 67 | 129 | 2.0 | 6.0 | 0.00 | 0.24 | 0.20 | 38 | 1008.2 |
| 20260506011004 | 67 | 114 | 2.0 | 6.0 | 0.00 | 0.24 | 0.20 | 38 | 1008.1 |
| 20260506010903 | 67 | 119 | 2.0 | 6.0 | 0.00 | 0.24 | 0.20 | 38 | 1008.2 |
| 20260506010804 | 67 | 124 | 2.0 | 6.0 | 0.00 | 0.24 | 0.20 | 37 | 1008.1 |
| 20260506010604 | 67 | 126 | 1.0 | 6.0 | 0.00 | 0.24 | 0.20 | 37 | 1008.1 |
| 20260506010504 | 67 | 137 | 3.0 | 6.0 | 0.00 | 0.24 | 0.20 | 37 | 1008.2 |
| 20260506010404 | 67 | 137 | 1.0 | 6.0 | 0.00 | 0.24 | 0.20 | 37 | 1008.1 |
| 20260506010304 | 67 | 136 | 2.0 | 6.0 | 0.00 | 0.24 | 0.20 | 37 | 1008.2 |
| 20260506010203 | 67 | 132 | 2.0 | 6.0 | 0.00 | 0.24 | 0.20 | 36 | 1008.2 |
| 20260506010104 | 67 | 137 | 2.0 | 6.0 | 0.00 | 0.24 | 0.20 | 37 | 1008.1 |
| 20260506010004 | 67 | 138 | 1.0 | 6.0 | 0.00 | 0.24 | 0.20 | 36 | 1008.2 |
| 20260506005904 | 67 | 133 | 1.0 | 6.0 | 0.00 | 0.24 | 0.20 | 36 | 1008.1 |
| 20260506005804 | 67 | 121 | 1.0 | 6.0 | 0.00 | 0.24 | 0.20 | 36 | 1008.2 |
| 20260506005704 | 67 | 119 | 2.0 | 6.0 | 0.00 | 0.24 | 0.20 | 37 | 1008.1 |
| 20260506005604 | 67 | 121 | 2.0 | 5.0 | 0.00 | 0.24 | 0.20 | 37 | 1008.2 |
| 20260506005504 | 67 | 121 | 2.0 | 5.0 | 0.00 | 0.24 | 0.20 | 37 | 1008.3 |
| 20260506005404 | 67 | 128 | 2.0 | 5.0 | 0.00 | 0.24 | 0.20 | 37 | 1008.1 |
| 20260506005305 | 67 | 128 | 2.0 | 5.0 | 0.00 | 0.24 | 0.20 | 37 | 1008.1 |
| 20260506005204 | 67 | 129 | 2.0 | 6.0 | 0.00 | 0.24 | 0.20 | 37 | 1008.2 |
| 20260506005104 | 67 | 130 | 2.0 | 6.0 | 0.00 | 0.24 | 0.20 | 37 | 1008.2 |
| 20260506005004 | 67 | 130 | 2.0 | 6.0 | 0.00 | 0.24 | 0.20 | 37 | 1008.3 |
| 20260506004904 | 67 | 134 | 3.0 | 7.0 | 0.00 | 0.24 | 0.20 | 37 | 1008.3 |
| 20260506004803 | 67 | 138 | 2.0 | 7.0 | 0.00 | 0.24 | 0.20 | 38 | 1008.2 |
| 20260506004704 | 67 | 137 | 2.0 | 7.0 | 0.00 | 0.24 | 0.20 | 38 | 1008.4 |
| 20260506004604 | 67 | 131 | 2.0 | 7.0 | 0.00 | 0.24 | 0.20 | 38 | 1008.2 |
| 20260506004503 | 67 | 128 | 2.0 | 7.0 | 0.00 | 0.24 | 0.20 | 38 | 1008.3 |
| 20260506004304 | 67 | 127 | 4.0 | 7.0 | 0.00 | 0.24 | 0.20 | 38 | 1008.3 |
| 20260506004204 | 67 | 124 | 3.0 | 7.0 | 0.00 | 0.24 | 0.20 | 38 | 1008.3 |
| 20260506004104 | 67 | 124 | 3.0 | 7.0 | 0.00 | 0.24 | 0.20 | 38 | 1008.2 |
| 20260506004003 | 67 | 124 | 2.0 | 7.0 | 0.00 | 0.24 | 0.20 | 38 | 1008.2 |
| 20260506003904 | 67 | 121 | 4.0 | 7.0 | 0.00 | 0.24 | 0.20 | 38 | 1008.1 |
| 20260506003803 | 67 | 120 | 3.0 | 7.0 | 0.00 | 0.24 | 0.20 | 38 | 1008.3 |
| 20260506003703 | 67 | 124 | 3.0 | 7.0 | 0.00 | 0.24 | 0.20 | 37 | 1008.2 |
| 20260506003604 | 67 | 129 | 2.0 | 7.0 | 0.00 | 0.24 | 0.20 | 38 | 1008.2 |
| 20260506003503 | 67 | 130 | 2.0 | 8.0 | 0.00 | 0.24 | 0.20 | 38 | 1008.2 |
| 20260506003404 | 67 | 133 | 2.0 | 8.0 | 0.00 | 0.24 | 0.20 | 38 | 1008.2 |
| 20260506003303 | 67 | 131 | 4.0 | 8.0 | 0.00 | 0.24 | 0.20 | 38 | 1008.2 |
| 20260506003203 | 67 | 131 | 2.0 | 8.0 | 0.00 | 0.24 | 0.20 | 38 | 1008.2 |
| 20260506003105 | 67 | 132 | 2.0 | 8.0 | 0.00 | 0.24 | 0.20 | 38 | 1008.2 |
| 20260506003004 | 67 | 133 | 2.0 | 8.0 | 0.00 | 0.24 | 0.20 | 38 | 1008.2 |
| 20260506002804 | 67 | 136 | 4.0 | 8.0 | 0.00 | 0.24 | 0.20 | 38 | 1008.2 |
| 20260506002703 | 67 | 136 | 3.0 | 8.0 | 0.00 | 0.24 | 0.20 | 38 | 1008.3 |
| 20260506002505 | 68 | 136 | 4.0 | 8.0 | 0.00 | 0.24 | 0.20 | 37 | 1008.2 |
| 20260506002404 | 67 | 136 | 2.0 | 12.0 | 0.00 | 0.24 | 0.20 | 38 | 1008.2 |
| 20260506002203 | 68 | 134 | 2.0 | 12.0 | 0.00 | 0.24 | 0.20 | 38 | 1008.2 |
| 20260506002104 | 68 | 136 | 3.0 | 12.0 | 0.00 | 0.24 | 0.20 | 38 | 1008.3 |
| 20260506002003 | 68 | 137 | 4.0 | 12.0 | 0.00 | 0.24 | 0.20 | 38 | 1008.1 |
| 20260506001904 | 68 | 137 | 4.0 | 12.0 | 0.00 | 0.24 | 0.20 | 38 | 1008.2 |
| 20260506001803 | 68 | 136 | 4.0 | 12.0 | 0.00 | 0.24 | 0.20 | 38 | 1008.3 |
| 20260506001704 | 68 | 136 | 4.0 | 12.0 | 0.00 | 0.24 | 0.20 | 38 | 1008.2 |
| 20260506001604 | 68 | 136 | 4.0 | 12.0 | 0.00 | 0.24 | 0.20 | 38 | 1008.1 |
| 20260506001504 | 68 | 139 | 4.0 | 12.0 | 0.00 | 0.24 | 0.20 | 38 | 1008.1 |
| 20260506001404 | 68 | 133 | 8.0 | 12.0 | 0.00 | 0.24 | 0.20 | 38 | 1008.2 |
| 20260506001103 | 68 | 118 | 3.0 | 8.0 | 0.00 | 0.24 | 0.20 | 38 | 1008.2 |
| 20260506001004 | 68 | 111 | 2.0 | 8.0 | 0.00 | 0.24 | 0.20 | 38 | 1007.9 |
| 20260506000904 | 68 | 109 | 3.0 | 8.0 | 0.00 | 0.24 | 0.20 | 38 | 1008.1 |
| 20260506000803 | 68 | 104 | 4.0 | 8.0 | 0.00 | 0.24 | 0.20 | 38 | 1008.1 |
| 20260506000704 | 68 | 101 | 2.0 | 8.0 | 0.00 | 0.24 | 0.20 | 38 | 1008.1 |
| 20260506000603 | 68 | 102 | 2.0 | 8.0 | 0.00 | 0.24 | 0.20 | 37 | 1008.1 |
| 20260506000504 | 68 | 100 | 1.0 | 8.0 | 0.00 | 0.24 | 0.20 | 36 | 1008.1 |
| 20260506000303 | 68 | 103 | 3.0 | 8.0 | 0.00 | 0.24 | 0.20 | 38 | 1008.2 |
| 20260506000205 | 68 | 96 | 4.0 | 8.0 | 0.00 | 0.24 | 0.20 | 38 | 1008.2 |
| 20260506000103 | 68 | 87 | 4.0 | 6.0 | 0.00 | 0.24 | 0.20 | 37 | 1008.2 |
| 20260506000003 | 68 | 51 | 2.0 | 7.0 | 0.00 | 0.24 | 0.20 | 37 | 1008.1 |
| 20260505235904 | 68 | 34 | 4.0 | 7.0 | 0.00 | 0.24 | 0.20 | 37 | 1008.1 |
| 20260505235803 | 68 | 51 | 2.0 | 7.0 | 0.00 | 0.24 | 0.20 | 36 | 1008.2 |
| 20260505235603 | 68 | 31 | 2.0 | 7.0 | 0.00 | 0.24 | 0.20 | 36 | 1008.1 |
| 20260505235404 | 68 | 23 | 4.0 | 7.0 | 0.00 | 0.24 | 0.20 | 35 | 1008.2 |
| 20260505235305 | 68 | 0 | 0.0 | 7.0 | 0.00 | 0.24 | 0.20 | 35 | 1008.2 |
| 20260505235204 | 68 | 18 | 2.0 | 7.0 | 0.00 | 0.24 | 0.20 | 35 | 1008.1 |
| 20260505235103 | 68 | 11 | 2.0 | 7.0 | 0.00 | 0.24 | 0.20 | 34 | 1008.2 |
| 20260505235004 | 68 | 5 | 3.0 | 7.0 | 0.00 | 0.24 | 0.20 | 35 | 1008.0 |
| 20260505234903 | 68 | 351 | 2.0 | 7.0 | 0.00 | 0.24 | 0.20 | 37 | 1008.0 |
| 20260505234804 | 68 | 337 | 2.0 | 8.0 | 0.00 | 0.24 | 0.20 | 37 | 1008.0 |
| 20260505234704 | 68 | 331 | 1.0 | 8.0 | 0.00 | 0.24 | 0.20 | 35 | 1008.0 |
| 20260505234604 | 68 | 334 | 2.0 | 8.0 | 0.00 | 0.24 | 0.20 | 35 | 1008.0 |
| 20260505234504 | 68 | 339 | 2.0 | 8.0 | 0.00 | 0.24 | 0.20 | 35 | 1008.1 |
| 20260505234404 | 68 | 340 | 2.0 | 8.0 | 0.00 | 0.24 | 0.20 | 38 | 1008.2 |
| 20260505234304 | 67 | 339 | 2.0 | 8.0 | 0.00 | 0.24 | 0.20 | 37 | 1008.0 |
| 20260505234204 | 67 | 339 | 2.0 | 8.0 | 0.00 | 0.24 | 0.20 | 35 | 1008.1 |
| 20260505234104 | 67 | 346 | 4.0 | 8.0 | 0.00 | 0.24 | 0.20 | 36 | 1008.1 |
| 20260505234003 | 67 | 338 | 4.0 | 10.0 | 0.00 | 0.24 | 0.20 | 36 | 1008.1 |
| 20260505233904 | 68 | 336 | 4.0 | 10.0 | 0.00 | 0.24 | 0.20 | 36 | 1008.2 |
| 20260505233804 | 67 | 335 | 4.0 | 10.0 | 0.00 | 0.24 | 0.20 | 35 | 1008.1 |
| 20260505233704 | 67 | 333 | 1.0 | 10.0 | 0.00 | 0.24 | 0.20 | 36 | 1008.2 |
| 20260505233603 | 67 | 330 | 1.0 | 10.0 | 0.00 | 0.24 | 0.20 | 36 | 1008.1 |
| 20260505233504 | 67 | 331 | 2.0 | 10.0 | 0.00 | 0.24 | 0.20 | 36 | 1008.2 |
| 20260505233403 | 68 | 336 | 4.0 | 10.0 | 0.00 | 0.24 | 0.20 | 36 | 1008.2 |
| 20260505233304 | 68 | 344 | 4.0 | 10.0 | 0.00 | 0.24 | 0.20 | 37 | 1008.3 |
| 20260505233203 | 68 | 341 | 4.0 | 10.0 | 0.00 | 0.24 | 0.20 | 34 | 1008.3 |
| 20260505233104 | 68 | 323 | 6.0 | 10.0 | 0.00 | 0.24 | 0.20 | 37 | 1008.2 |
| 20260505233004 | 68 | 331 | 6.0 | 10.0 | 0.00 | 0.24 | 0.20 | 37 | 1008.2 |
| 20260505232903 | 68 | 334 | 4.0 | 8.0 | 0.00 | 0.24 | 0.20 | 37 | 1008.2 |
| 20260505232804 | 68 | 335 | 2.0 | 8.0 | 0.00 | 0.24 | 0.20 | 38 | 1008.2 |
| 20260505232703 | 67 | 333 | 2.0 | 8.0 | 0.00 | 0.24 | 0.20 | 38 | 1008.2 |
| 20260505232504 | 67 | 340 | 1.0 | 8.0 | 0.00 | 0.24 | 0.20 | 38 | 1008.3 |
| 20260505232403 | 67 | 339 | 2.0 | 8.0 | 0.00 | 0.24 | 0.20 | 37 | 1008.3 |
| 20260505232204 | 67 | 336 | 3.0 | 8.0 | 0.00 | 0.24 | 0.20 | 38 | 1008.4 |
| 20260505232103 | 67 | 338 | 4.0 | 8.0 | 0.00 | 0.24 | 0.20 | 39 | 1008.4 |
| 20260505232004 | 67 | 331 | 4.0 | 8.0 | 0.00 | 0.24 | 0.20 | 40 | 1008.3 |
| 20260505231904 | 67 | 325 | 4.0 | 8.0 | 0.00 | 0.24 | 0.20 | 40 | 1008.4 |
| 20260505231804 | 67 | 322 | 4.0 | 8.0 | 0.00 | 0.25 | 0.20 | 42 | 1008.4 |
| 20260505231704 | 67 | 319 | 4.0 | 7.0 | 0.00 | 0.25 | 0.20 | 40 | 1008.4 |
| 20260505231603 | 66 | 310 | 4.0 | 7.0 | 0.00 | 0.25 | 0.20 | 42 | 1008.4 |
| 20260505231504 | 66 | 302 | 4.0 | 7.0 | 0.00 | 0.25 | 0.20 | 42 | 1008.4 |
| 20260505231403 | 66 | 290 | 2.0 | 5.0 | 0.00 | 0.25 | 0.20 | 41 | 1008.5 |
| 20260505231304 | 65 | 279 | 2.0 | 7.0 | 0.00 | 0.25 | 0.20 | 42 | 1008.4 |
| 20260505231105 | 65 | 278 | 2.0 | 7.0 | 0.00 | 0.25 | 0.20 | 42 | 1008.4 |
| 20260505231004 | 65 | 280 | 2.0 | 7.0 | 0.00 | 0.25 | 0.20 | 41 | 1008.4 |
| 20260505230904 | 65 | 286 | 2.0 | 7.0 | 0.00 | 0.25 | 0.20 | 40 | 1008.4 |
| 20260505230803 | 65 | 291 | 2.0 | 7.0 | 0.00 | 0.25 | 0.20 | 42 | 1008.5 |
| 20260505230704 | 65 | 295 | 2.0 | 7.0 | 0.00 | 0.25 | 0.20 | 42 | 1008.3 |
| 20260505230604 | 65 | 295 | 2.0 | 7.0 | 0.00 | 0.25 | 0.20 | 44 | 1008.4 |
| 20260505230503 | 65 | 296 | 2.0 | 8.0 | 0.00 | 0.25 | 0.20 | 43 | 1008.3 |
| 20260505230404 | 65 | 298 | 4.0 | 8.0 | 0.00 | 0.25 | 0.20 | 41 | 1008.3 |
| 20260505230204 | 65 | 306 | 4.0 | 8.0 | 0.00 | 0.25 | 0.20 | 41 | 1008.3 |
| 20260505230104 | 65 | 305 | 3.0 | 8.0 | 0.00 | 0.25 | 0.20 | 41 | 1008.4 |
| 20260505225904 | 65 | 306 | 3.0 | 8.0 | 0.00 | 0.25 | 0.20 | 43 | 1008.3 |
| 20260505225704 | 65 | 299 | 3.0 | 8.0 | 0.00 | 0.25 | 0.20 | 42 | 1008.3 |
| 20260505225604 | 65 | 298 | 4.0 | 8.0 | 0.00 | 0.25 | 0.20 | 43 | 1008.3 |
| 20260505225504 | 65 | 291 | 4.0 | 8.0 | 0.00 | 0.25 | 0.20 | 43 | 1008.4 |
| 20260505225404 | 65 | 292 | 3.0 | 8.0 | 0.00 | 0.25 | 0.20 | 43 | 1008.3 |
| 20260505225305 | 65 | 292 | 3.0 | 8.0 | 0.00 | 0.25 | 0.20 | 43 | 1008.4 |
| 20260505225204 | 65 | 287 | 3.0 | 8.0 | 0.00 | 0.25 | 0.20 | 43 | 1008.3 |
| 20260505225103 | 65 | 289 | 4.0 | 8.0 | 0.00 | 0.25 | 0.20 | 44 | 1008.4 |
| 20260505225003 | 65 | 283 | 4.0 | 8.0 | 0.00 | 0.25 | 0.20 | 43 | 1008.4 |
| 20260505224904 | 65 | 282 | 4.0 | 8.0 | 0.00 | 0.25 | 0.20 | 41 | 1008.4 |
| 20260505224804 | 65 | 280 | 2.0 | 8.0 | 0.00 | 0.25 | 0.20 | 44 | 1008.4 |
| 20260505224604 | 65 | 270 | 4.0 | 8.0 | 0.00 | 0.25 | 0.20 | 42 | 1008.3 |
| 20260505224503 | 65 | 264 | 4.0 | 8.0 | 0.00 | 0.25 | 0.20 | 42 | 1008.4 |
| 20260505224404 | 65 | 244 | 3.0 | 8.0 | 0.00 | 0.25 | 0.20 | 45 | 1008.4 |
| 20260505224304 | 65 | 216 | 6.0 | 8.0 | 0.00 | 0.25 | 0.20 | 43 | 1008.4 |
| 20260505224204 | 65 | 182 | 5.0 | 8.0 | 0.00 | 0.25 | 0.20 | 44 | 1008.4 |
| 20260505224104 | 65 | 157 | 3.0 | 6.0 | 0.00 | 0.25 | 0.20 | 44 | 1008.3 |
| 20260505224004 | 64 | 148 | 1.0 | 6.0 | 0.00 | 0.25 | 0.20 | 45 | 1008.5 |
| 20260505223904 | 64 | 167 | 3.0 | 6.0 | 0.00 | 0.25 | 0.20 | 45 | 1008.4 |
| 20260505223804 | 64 | 145 | 2.0 | 5.0 | 0.00 | 0.25 | 0.20 | 45 | 1008.4 |
| 20260505223704 | 64 | 146 | 2.0 | 4.0 | 0.00 | 0.25 | 0.20 | 45 | 1008.4 |
| 20260505223603 | 64 | 168 | 2.0 | 4.0 | 0.00 | 0.25 | 0.20 | 45 | 1008.5 |
| 20260505223504 | 64 | 203 | 2.0 | 4.0 | 0.00 | 0.25 | 0.20 | 45 | 1008.5 |
| 20260505223404 | 64 | 0 | 0.0 | 4.0 | 0.00 | 0.25 | 0.20 | 44 | 1008.5 |
| 20260505223104 | 62 | 232 | 2.0 | 7.0 | 0.00 | 0.26 | 0.20 | 46 | 1009.1 |
| 20260505223004 | 62 | 232 | 2.0 | 7.0 | 0.00 | 0.27 | 0.20 | 46 | 1009.1 |
| 20260505222903 | 62 | 232 | 2.0 | 7.0 | 0.00 | 0.27 | 0.20 | 46 | 1009.1 |
| 20260505222804 | 62 | 232 | 2.0 | 7.0 | 0.00 | 0.27 | 0.20 | 46 | 1009.1 |
| 20260505222703 | 62 | 232 | 2.0 | 7.0 | 0.00 | 0.27 | 0.20 | 46 | 1009.1 |
| 20260505222604 | 62 | 232 | 2.0 | 7.0 | 0.00 | 0.27 | 0.20 | 46 | 1009.1 |
| 20260505222504 | 62 | 232 | 2.0 | 7.0 | 0.00 | 0.27 | 0.20 | 46 | 1009.1 |
| 20260505222403 | 62 | 232 | 2.0 | 7.0 | 0.00 | 0.27 | 0.20 | 46 | 1009.1 |
| 20260505222306 | 62 | 232 | 2.0 | 7.0 | 0.00 | 0.27 | 0.20 | 46 | 1009.1 |
| 20260505222204 | 62 | 232 | 2.0 | 7.0 | 0.00 | 0.28 | 0.20 | 46 | 1009.1 |
| 20260505222103 | 62 | 232 | 2.0 | 7.0 | 0.00 | 0.28 | 0.20 | 46 | 1009.1 |
| 20260505221804 | 62 | 232 | 2.0 | 7.0 | 0.00 | 0.28 | 0.20 | 46 | 1009.1 |
| 20260505221704 | 62 | 232 | 2.0 | 7.0 | 0.00 | 0.30 | 0.20 | 46 | 1009.1 |
| 20260505221504 | 62 | 232 | 2.0 | 7.0 | 0.00 | 0.30 | 0.20 | 46 | 1009.1 |
| 20260505221404 | 62 | 232 | 2.0 | 7.0 | 0.00 | 0.30 | 0.20 | 46 | 1009.1 |
| 20260505221304 | 62 | 232 | 2.0 | 7.0 | 0.00 | 0.30 | 0.20 | 46 | 1009.1 |
| 20260505221103 | 62 | 232 | 2.0 | 7.0 | 0.00 | 0.30 | 0.20 | 46 | 1009.1 |
| 20260505221004 | 62 | 232 | 2.0 | 7.0 | 0.00 | 0.30 | 0.20 | 46 | 1009.1 |
| 20260505220904 | 62 | 232 | 2.0 | 7.0 | 0.00 | 0.30 | 0.20 | 46 | 1009.1 |
| 20260505220804 | 62 | 232 | 2.0 | 7.0 | 0.00 | 0.30 | 0.20 | 46 | 1009.1 |
| 20260505220704 | 62 | 232 | 2.0 | 7.0 | 0.00 | 0.30 | 0.20 | 46 | 1009.1 |
| 20260505220603 | 62 | 232 | 2.0 | 7.0 | 0.00 | 0.30 | 0.20 | 46 | 1009.1 |
| 20260505220404 | 62 | 232 | 2.0 | 7.0 | 0.00 | 0.30 | 0.20 | 46 | 1009.1 |
| 20260505220304 | 62 | 232 | 2.0 | 7.0 | 0.00 | 0.30 | 0.20 | 46 | 1009.1 |
| 20260505220204 | 62 | 232 | 2.0 | 7.0 | 0.00 | 0.30 | 0.20 | 46 | 1009.1 |
| 20260505220104 | 62 | 232 | 2.0 | 7.0 | 0.00 | 0.30 | 0.20 | 46 | 1009.1 |
| 20260505220004 | 62 | 232 | 2.0 | 7.0 | 0.00 | 0.30 | 0.20 | 46 | 1009.1 |
| 20260505215903 | 62 | 232 | 2.0 | 7.0 | 0.00 | 0.30 | 0.20 | 46 | 1009.1 |
| 20260505215704 | 62 | 232 | 2.0 | 7.0 | 0.00 | 0.30 | 0.20 | 46 | 1009.1 |
| 20260505215604 | 62 | 232 | 2.0 | 7.0 | 0.00 | 0.30 | 0.20 | 46 | 1009.1 |
| 20260505215504 | 62 | 232 | 2.0 | 7.0 | 0.00 | 0.30 | 0.20 | 46 | 1009.1 |
| 20260505215403 | 62 | 232 | 2.0 | 7.0 | 0.00 | 0.30 | 0.20 | 46 | 1009.1 |
| 20260505215203 | 62 | 232 | 2.0 | 7.0 | 0.00 | 0.30 | 0.20 | 46 | 1009.1 |
| 20260505215104 | 62 | 232 | 2.0 | 7.0 | 0.00 | 0.30 | 0.20 | 46 | 1009.1 |
| 20260505215004 | 62 | 232 | 2.0 | 7.0 | 0.00 | 0.30 | 0.20 | 46 | 1009.1 |
| 20260505214804 | 62 | 232 | 2.0 | 7.0 | 0.00 | 0.30 | 0.20 | 46 | 1009.1 |
| 20260505214704 | 62 | 232 | 2.0 | 7.0 | 0.00 | 0.30 | 0.20 | 46 | 1009.1 |
| 20260505214304 | 62 | 232 | 2.0 | 7.0 | 0.00 | 0.30 | 0.20 | 46 | 1009.1 |
| 20260505214203 | 62 | 232 | 2.0 | 7.0 | 0.00 | 0.30 | 0.20 | 46 | 1009.1 |
| 20260505214104 | 62 | 232 | 2.0 | 7.0 | 0.00 | 0.30 | 0.20 | 46 | 1009.1 |
| 20260505213904 | 62 | 232 | 2.0 | 7.0 | 0.00 | 0.30 | 0.20 | 46 | 1009.1 |
| 20260505213804 | 62 | 232 | 2.0 | 7.0 | 0.00 | 0.30 | 0.20 | 46 | 1009.1 |
| 20260505213704 | 62 | 232 | 2.0 | 7.0 | 0.00 | 0.30 | 0.20 | 46 | 1009.1 |
| 20260505213604 | 62 | 232 | 2.0 | 7.0 | 0.00 | 0.30 | 0.20 | 46 | 1009.1 |
| 20260505213404 | 62 | 232 | 2.0 | 7.0 | 0.00 | 0.30 | 0.20 | 46 | 1009.1 |
| 20260505213303 | 62 | 232 | 2.0 | 7.0 | 0.00 | 0.30 | 0.20 | 46 | 1009.1 |
| 20260505213204 | 62 | 232 | 2.0 | 7.0 | 0.00 | 0.30 | 0.20 | 46 | 1009.1 |
| 20260505213104 | 62 | 232 | 2.0 | 7.0 | 0.00 | 0.30 | 0.20 | 46 | 1009.1 |
| 20260505213003 | 62 | 233 | 2.0 | 7.0 | 0.00 | 0.30 | 0.20 | 46 | 1009.2 |
| 20260505212904 | 62 | 241 | 2.0 | 7.0 | 0.00 | 0.30 | 0.20 | 45 | 1009.1 |
| 20260505212803 | 62 | 242 | 4.0 | 8.0 | 0.00 | 0.30 | 0.20 | 45 | 1009.2 |
| 20260505212704 | 62 | 241 | 3.0 | 8.0 | 0.00 | 0.30 | 0.20 | 46 | 1009.3 |
| 20260505212504 | 62 | 236 | 4.0 | 8.0 | 0.00 | 0.30 | 0.20 | 45 | 1009.3 |
| 20260505212404 | 62 | 230 | 3.0 | 8.0 | 0.00 | 0.30 | 0.20 | 46 | 1009.3 |
| 20260505212305 | 62 | 225 | 3.0 | 8.0 | 0.00 | 0.30 | 0.20 | 46 | 1009.2 |
| 20260505212205 | 63 | 223 | 2.0 | 8.0 | 0.00 | 0.30 | 0.20 | 47 | 1009.3 |
| 20260505212103 | 63 | 214 | 2.0 | 8.0 | 0.00 | 0.30 | 0.20 | 47 | 1009.3 |
| 20260505212004 | 63 | 214 | 4.0 | 8.0 | 0.00 | 0.30 | 0.20 | 47 | 1009.3 |
| 20260505211804 | 63 | 201 | 4.0 | 8.0 | 0.00 | 0.30 | 0.20 | 46 | 1009.2 |
| 20260505211704 | 63 | 196 | 3.0 | 5.0 | 0.00 | 0.30 | 0.20 | 47 | 1009.3 |
| 20260505211604 | 62 | 190 | 1.0 | 5.0 | 0.00 | 0.30 | 0.20 | 49 | 1009.2 |
| 20260505211504 | 62 | 187 | 1.0 | 5.0 | 0.00 | 0.30 | 0.20 | 49 | 1009.3 |
| 20260505211405 | 62 | 187 | 2.0 | 5.0 | 0.00 | 0.30 | 0.20 | 49 | 1009.3 |
| 20260505211203 | 62 | 171 | 1.0 | 5.0 | 0.00 | 0.30 | 0.20 | 48 | 1009.3 |
| 20260505211004 | 62 | 160 | 1.0 | 5.0 | 0.00 | 0.30 | 0.20 | 49 | 1009.3 |
| 20260505210903 | 62 | 145 | 2.0 | 5.0 | 0.00 | 0.30 | 0.20 | 48 | 1009.3 |
| 20260505210804 | 62 | 126 | 2.0 | 5.0 | 0.00 | 0.30 | 0.20 | 49 | 1009.2 |
| 20260505210703 | 62 | 121 | 2.0 | 5.0 | 0.00 | 0.30 | 0.20 | 50 | 1009.2 |
| 20260505210604 | 62 | 117 | 2.0 | 5.0 | 0.00 | 0.30 | 0.20 | 50 | 1009.2 |
| 20260505210503 | 62 | 105 | 2.0 | 5.0 | 0.00 | 0.30 | 0.20 | 50 | 1009.3 |
| 20260505210404 | 62 | 109 | 2.0 | 5.0 | 0.00 | 0.30 | 0.20 | 51 | 1009.3 |
| 20260505210304 | 62 | 117 | 2.0 | 5.0 | 0.00 | 0.30 | 0.20 | 51 | 1009.3 |
| 20260505210104 | 62 | 176 | 2.0 | 7.0 | 0.00 | 0.30 | 0.20 | 50 | 1009.3 |
| 20260505210004 | 62 | 205 | 3.0 | 7.0 | 0.00 | 0.30 | 0.20 | 50 | 1009.4 |
| 20260505205904 | 62 | 215 | 2.0 | 7.0 | 0.00 | 0.30 | 0.20 | 52 | 1009.3 |
| 20260505205803 | 61 | 217 | 2.0 | 7.0 | 0.00 | 0.30 | 0.20 | 52 | 1009.3 |
| 20260505205704 | 61 | 220 | 1.0 | 7.0 | 0.00 | 0.30 | 0.20 | 52 | 1009.4 |
| 20260505205604 | 61 | 220 | 1.0 | 7.0 | 0.00 | 0.30 | 0.20 | 51 | 1009.3 |
| 20260505205505 | 61 | 215 | 2.0 | 7.0 | 0.00 | 0.30 | 0.20 | 50 | 1009.4 |
| 20260505205404 | 61 | 218 | 1.0 | 7.0 | 0.00 | 0.30 | 0.20 | 50 | 1009.3 |
| 20260505205204 | 62 | 207 | 3.0 | 7.0 | 0.00 | 0.30 | 0.20 | 50 | 1009.3 |
| 20260505205003 | 62 | 196 | 2.0 | 7.0 | 0.00 | 0.30 | 0.20 | 52 | 1009.4 |
| 20260505204904 | 62 | 189 | 2.0 | 7.0 | 0.00 | 0.30 | 0.20 | 53 | 1009.4 |
| 20260505204803 | 62 | 195 | 1.0 | 4.0 | 0.00 | 0.30 | 0.20 | 54 | 1009.5 |
| 20260505204705 | 62 | 199 | 2.0 | 4.0 | 0.00 | 0.30 | 0.20 | 54 | 1009.5 |
| 20260505204604 | 62 | 204 | 2.0 | 4.0 | 0.00 | 0.30 | 0.20 | 54 | 1009.5 |
| 20260505204503 | 62 | 211 | 2.0 | 4.0 | 0.00 | 0.30 | 0.20 | 54 | 1009.5 |
| 20260505204404 | 62 | 197 | 2.0 | 4.0 | 0.00 | 0.30 | 0.20 | 53 | 1009.5 |
| 20260505204303 | 62 | 196 | 2.0 | 4.0 | 0.00 | 0.30 | 0.20 | 55 | 1009.4 |
| 20260505204204 | 62 | 187 | 1.0 | 4.0 | 0.00 | 0.30 | 0.20 | 55 | 1009.6 |
| 20260505204104 | 62 | 0 | 0.0 | 4.0 | 0.00 | 0.30 | 0.20 | 55 | 1009.6 |
| 20260505204004 | 62 | 166 | 2.0 | 4.0 | 0.00 | 0.30 | 0.20 | 54 | 1009.5 |
| 20260505203903 | 62 | 165 | 2.0 | 4.0 | 0.00 | 0.30 | 0.20 | 54 | 1009.5 |
| 20260505203804 | 62 | 0 | 0.0 | 7.0 | 0.00 | 0.30 | 0.20 | 56 | 1009.5 |
| 20260505203703 | 61 | 0 | 0.0 | 8.0 | 0.00 | 0.30 | 0.20 | 56 | 1009.6 |
| 20260505203604 | 61 | 203 | 1.0 | 8.0 | 0.00 | 0.30 | 0.20 | 56 | 1009.5 |
| 20260505203403 | 61 | 222 | 2.0 | 8.0 | 0.00 | 0.30 | 0.20 | 57 | 1009.6 |
| 20260505203304 | 60 | 224 | 1.0 | 8.0 | 0.00 | 0.30 | 0.20 | 58 | 1009.5 |
| 20260505203204 | 60 | 229 | 2.0 | 8.0 | 0.00 | 0.30 | 0.20 | 58 | 1009.5 |
| 20260505203104 | 60 | 237 | 1.0 | 8.0 | 0.00 | 0.30 | 0.20 | 56 | 1009.6 |
| 20260505203004 | 60 | 245 | 1.0 | 8.0 | 0.00 | 0.30 | 0.20 | 56 | 1009.6 |
| 20260505202904 | 60 | 241 | 2.0 | 8.0 | 0.00 | 0.30 | 0.20 | 55 | 1009.6 |
| 20260505202804 | 60 | 240 | 4.0 | 8.0 | 0.00 | 0.30 | 0.20 | 56 | 1009.6 |
| 20260505202604 | 59 | 234 | 2.0 | 8.0 | 0.00 | 0.30 | 0.20 | 59 | 1009.6 |
| 20260505202306 | 59 | 235 | 4.0 | 8.0 | 0.00 | 0.30 | 0.20 | 59 | 1009.6 |
| 20260505202203 | 59 | 238 | 4.0 | 8.0 | 0.00 | 0.30 | 0.20 | 60 | 1009.6 |
| 20260505202104 | 59 | 235 | 2.0 | 7.0 | 0.00 | 0.30 | 0.20 | 60 | 1009.6 |
| 20260505202004 | 59 | 245 | 2.0 | 7.0 | 0.00 | 0.30 | 0.20 | 59 | 1009.5 |
| 20260505201903 | 59 | 256 | 3.0 | 7.0 | 0.00 | 0.30 | 0.20 | 59 | 1009.6 |
| 20260505201804 | 59 | 264 | 5.0 | 7.0 | 0.00 | 0.30 | 0.20 | 59 | 1009.6 |
| 20260505201504 | 59 | 279 | 2.0 | 7.0 | 0.00 | 0.30 | 0.20 | 63 | 1009.6 |
| 20260505201403 | 59 | 289 | 2.0 | 7.0 | 0.00 | 0.30 | 0.20 | 61 | 1009.6 |
| 20260505201304 | 59 | 276 | 1.0 | 7.0 | 0.00 | 0.30 | 0.20 | 60 | 1009.7 |
| 20260505201203 | 59 | 283 | 2.0 | 7.0 | 0.00 | 0.30 | 0.20 | 60 | 1009.6 |
| 20260505201104 | 59 | 280 | 2.0 | 7.0 | 0.00 | 0.30 | 0.20 | 59 | 1009.7 |
| 20260505201004 | 59 | 274 | 4.0 | 7.0 | 0.00 | 0.30 | 0.20 | 59 | 1009.8 |
| 20260505200904 | 59 | 279 | 4.0 | 7.0 | 0.00 | 0.30 | 0.20 | 62 | 1009.7 |
| 20260505200804 | 59 | 250 | 2.0 | 4.0 | 0.00 | 0.30 | 0.20 | 62 | 1009.6 |
| 20260505200704 | 58 | 68 | 2.0 | 6.0 | 0.00 | 0.30 | 0.20 | 62 | 1009.6 |
| 20260505200604 | 58 | 54 | 1.0 | 6.0 | 0.00 | 0.30 | 0.20 | 62 | 1009.7 |
| 20260505200503 | 58 | 56 | 1.0 | 6.0 | 0.00 | 0.30 | 0.20 | 62 | 1009.7 |
| 20260505200404 | 58 | 63 | 2.0 | 6.0 | 0.00 | 0.30 | 0.20 | 62 | 1009.6 |
| 20260505200303 | 58 | 0 | 0.0 | 6.0 | 0.00 | 0.30 | 0.20 | 62 | 1009.7 |
| 20260505200204 | 58 | 72 | 1.0 | 6.0 | 0.00 | 0.30 | 0.20 | 62 | 1009.7 |
| 20260505200104 | 58 | 81 | 1.0 | 6.0 | 0.00 | 0.30 | 0.20 | 63 | 1009.7 |
| 20260505195903 | 58 | 89 | 1.0 | 6.0 | 0.00 | 0.30 | 0.20 | 63 | 1009.7 |
| 20260505195604 | 58 | 70 | 2.0 | 6.0 | 0.00 | 0.30 | 0.20 | 61 | 1009.7 |
| 20260505195504 | 58 | 73 | 4.0 | 6.0 | 0.00 | 0.30 | 0.20 | 63 | 1009.7 |
| 20260505195403 | 58 | 74 | 2.0 | 6.0 | 0.00 | 0.30 | 0.20 | 64 | 1009.7 |
| 20260505195305 | 58 | 67 | 2.0 | 6.0 | 0.00 | 0.30 | 0.20 | 65 | 1009.7 |
| 20260505195203 | 57 | 53 | 2.0 | 4.0 | 0.00 | 0.30 | 0.20 | 66 | 1009.7 |
| 20260505195104 | 57 | 356 | 2.0 | 5.0 | 0.00 | 0.30 | 0.20 | 66 | 1009.7 |
| 20260505195004 | 56 | 309 | 2.0 | 6.0 | 0.00 | 0.30 | 0.20 | 67 | 1009.7 |
| 20260505194903 | 59 | 278 | 3.0 | 8.0 | 0.00 | 0.30 | 0.20 | 67 | 1009.7 |
| 20260505194804 | 58 | 260 | 1.0 | 8.0 | 0.00 | 0.30 | 0.20 | 67 | 1009.7 |
| 20260505194703 | 56 | 256 | 2.0 | 8.0 | 0.00 | 0.30 | 0.20 | 67 | 1009.6 |
| 20260505194504 | 56 | 246 | 2.0 | 8.0 | 0.00 | 0.30 | 0.20 | 66 | 1009.7 |
| 20260505194403 | 56 | 248 | 2.0 | 8.0 | 0.00 | 0.30 | 0.20 | 66 | 1009.8 |
| 20260505194304 | 56 | 246 | 2.0 | 8.0 | 0.00 | 0.30 | 0.20 | 67 | 1009.7 |
| 20260505194204 | 56 | 241 | 2.0 | 8.0 | 0.00 | 0.30 | 0.20 | 65 | 1009.8 |
| 20260505194103 | 56 | 232 | 2.0 | 8.0 | 0.00 | 0.30 | 0.20 | 64 | 1009.7 |
| 20260505194004 | 56 | 231 | 6.0 | 8.0 | 0.00 | 0.30 | 0.20 | 66 | 1009.8 |
| 20260505193804 | 56 | 228 | 4.0 | 7.0 | 0.00 | 0.30 | 0.20 | 66 | 1009.7 |
| 20260505193704 | 56 | 223 | 1.0 | 7.0 | 0.00 | 0.30 | 0.20 | 65 | 1009.7 |
| 20260505193604 | 56 | 0 | 0.0 | 7.0 | 0.00 | 0.30 | 0.20 | 64 | 1009.6 |
| 20260505193504 | 56 | 0 | 0.0 | 8.0 | 0.00 | 0.30 | 0.20 | 64 | 1009.7 |
| 20260505193304 | 56 | 224 | 2.0 | 8.0 | 0.00 | 0.30 | 0.20 | 64 | 1009.6 |
| 20260505193204 | 56 | 228 | 2.0 | 8.0 | 0.00 | 0.30 | 0.20 | 64 | 1009.6 |
| 20260505193004 | 56 | 237 | 2.0 | 8.0 | 0.00 | 0.30 | 0.20 | 65 | 1009.7 |
| 20260505192903 | 56 | 240 | 2.0 | 8.0 | 0.00 | 0.30 | 0.20 | 65 | 1009.7 |
| 20260505192704 | 56 | 229 | 4.0 | 8.0 | 0.00 | 0.30 | 0.20 | 65 | 1009.7 |
| 20260505192604 | 56 | 213 | 4.0 | 8.0 | 0.00 | 0.30 | 0.20 | 64 | 1009.7 |
| 20260505192504 | 56 | 194 | 4.0 | 8.0 | 0.00 | 0.30 | 0.20 | 64 | 1009.7 |
| 20260505192403 | 56 | 166 | 2.0 | 4.0 | 0.00 | 0.30 | 0.20 | 66 | 1009.7 |
| 20260505192205 | 56 | 0 | 0.0 | 4.0 | 0.00 | 0.30 | 0.20 | 66 | 1009.7 |
| 20260505192104 | 56 | 132 | 2.0 | 4.0 | 0.00 | 0.30 | 0.20 | 66 | 1009.8 |
| 20260505192004 | 56 | 124 | 1.0 | 5.0 | 0.00 | 0.30 | 0.20 | 68 | 1009.7 |
| 20260505191904 | 56 | 116 | 2.0 | 5.0 | 0.00 | 0.30 | 0.20 | 69 | 1009.7 |
| 20260505191804 | 56 | 117 | 3.0 | 5.0 | 0.00 | 0.30 | 0.20 | 69 | 1009.8 |
| 20260505191703 | 56 | 118 | 2.0 | 5.0 | 0.00 | 0.30 | 0.20 | 68 | 1009.7 |
| 20260505191604 | 56 | 123 | 3.0 | 5.0 | 0.00 | 0.30 | 0.20 | 70 | 1009.9 |
| 20260505191504 | 56 | 129 | 3.0 | 5.0 | 0.00 | 0.30 | 0.20 | 70 | 1009.8 |
| 20260505191404 | 55 | 134 | 2.0 | 5.0 | 0.00 | 0.30 | 0.20 | 70 | 1009.8 |
| 20260505191304 | 55 | 130 | 1.0 | 5.0 | 0.00 | 0.30 | 0.20 | 69 | 1009.8 |
| 20260505191203 | 55 | 149 | 1.0 | 5.0 | 0.00 | 0.30 | 0.20 | 69 | 1009.7 |
| 20260505191104 | 55 | 138 | 2.0 | 5.0 | 0.00 | 0.30 | 0.20 | 69 | 1009.6 |
| 20260505191004 | 55 | 135 | 2.0 | 5.0 | 0.00 | 0.30 | 0.20 | 70 | 1009.7 |
| 20260505190904 | 55 | 151 | 2.0 | 5.0 | 0.00 | 0.30 | 0.20 | 70 | 1009.7 |
| 20260505190704 | 55 | 164 | 1.0 | 4.0 | 0.00 | 0.30 | 0.20 | 70 | 1009.6 |
| 20260505190604 | 55 | 154 | 1.0 | 4.0 | 0.00 | 0.30 | 0.20 | 70 | 1009.7 |
| 20260505190504 | 55 | 143 | 1.0 | 4.0 | 0.00 | 0.30 | 0.20 | 71 | 1009.8 |
| 20260505190404 | 54 | 151 | 1.0 | 4.0 | 0.00 | 0.30 | 0.20 | 71 | 1009.8 |
| 20260505190304 | 54 | 170 | 1.0 | 4.0 | 0.00 | 0.30 | 0.20 | 72 | 1009.9 |
| 20260505190204 | 54 | 167 | 1.0 | 4.0 | 0.00 | 0.30 | 0.20 | 72 | 1009.8 |
| 20260505190104 | 54 | 178 | 2.0 | 4.0 | 0.00 | 0.30 | 0.20 | 73 | 1009.8 |
| 20260505190004 | 54 | 195 | 2.0 | 4.0 | 0.00 | 0.30 | 0.20 | 74 | 1009.9 |
| 20260505185903 | 54 | 214 | 1.0 | 3.0 | 0.01 | 0.30 | 0.20 | 74 | 1009.9 |
| 20260505185804 | 54 | 0 | 0.0 | 3.0 | 0.01 | 0.30 | 0.20 | 74 | 1009.9 |
| 20260505185704 | 53 | 0 | 0.0 | 5.0 | 0.01 | 0.30 | 0.20 | 74 | 1009.9 |
| 20260505185604 | 53 | 0 | 0.0 | 5.0 | 0.01 | 0.30 | 0.20 | 73 | 1009.9 |
| 20260505185504 | 53 | 0 | 0.0 | 5.0 | 0.01 | 0.30 | 0.20 | 73 | 1009.8 |
| 20260505185204 | 53 | 0 | 0.0 | 5.0 | 0.01 | 0.30 | 0.20 | 74 | 1009.8 |
| 20260505185104 | 52 | 0 | 0.0 | 5.0 | 0.01 | 0.30 | 0.20 | 74 | 1009.8 |
| 20260505185004 | 52 | 220 | 1.0 | 5.0 | 0.01 | 0.30 | 0.20 | 74 | 1009.7 |
| 20260505184904 | 52 | 221 | 1.0 | 5.0 | 0.01 | 0.30 | 0.20 | 74 | 1009.8 |
| 20260505184804 | 52 | 212 | 2.0 | 5.0 | 0.01 | 0.30 | 0.20 | 74 | 1009.9 |
| 20260505184704 | 52 | 0 | 0.0 | 3.0 | 0.01 | 0.30 | 0.20 | 74 | 1009.8 |
| 20260505184605 | 52 | 211 | 1.0 | 3.0 | 0.01 | 0.30 | 0.20 | 74 | 1009.8 |
| 20260505184504 | 52 | 192 | 1.0 | 4.0 | 0.01 | 0.30 | 0.20 | 74 | 1009.9 |
| 20260505184304 | 52 | 140 | 1.0 | 4.0 | 0.01 | 0.30 | 0.20 | 75 | 1009.9 |
| 20260505184204 | 52 | 0 | 0.0 | 4.0 | 0.01 | 0.30 | 0.20 | 75 | 1009.8 |
| 20260505184104 | 52 | 0 | 0.0 | 4.0 | 0.01 | 0.30 | 0.20 | 75 | 1009.7 |
| 20260505184004 | 52 | 130 | 1.0 | 4.0 | 0.01 | 0.30 | 0.20 | 76 | 1009.7 |
| 20260505183904 | 52 | 125 | 1.0 | 4.0 | 0.01 | 0.30 | 0.20 | 76 | 1009.7 |
| 20260505183804 | 52 | 125 | 1.0 | 4.0 | 0.01 | 0.30 | 0.20 | 77 | 1009.7 |
| 20260505183704 | 52 | 0 | 0.0 | 4.0 | 0.01 | 0.30 | 0.20 | 77 | 1009.7 |
| 20260505183604 | 51 | 132 | 1.0 | 4.0 | 0.01 | 0.30 | 0.20 | 77 | 1009.7 |
| 20260505183504 | 51 | 132 | 1.0 | 4.0 | 0.01 | 0.30 | 0.20 | 77 | 1009.7 |
| 20260505183404 | 51 | 0 | 0.0 | 4.0 | 0.01 | 0.30 | 0.20 | 77 | 1009.7 |
| 20260505183304 | 51 | 0 | 0.0 | 4.0 | 0.01 | 0.30 | 0.20 | 77 | 1009.6 |
| 20260505183204 | 51 | 0 | 0.0 | 4.0 | 0.01 | 0.30 | 0.20 | 76 | 1009.7 |
| 20260505183105 | 51 | 139 | 1.0 | 4.0 | 0.01 | 0.30 | 0.20 | 77 | 1009.6 |
| 20260505183004 | 51 | 141 | 1.0 | 4.0 | 0.01 | 0.30 | 0.20 | 77 | 1009.7 |
| 20260505182904 | 51 | 144 | 1.0 | 4.0 | 0.01 | 0.30 | 0.20 | 77 | 1009.7 |
| 20260505182804 | 51 | 0 | 0.0 | 2.0 | 0.01 | 0.30 | 0.20 | 77 | 1009.7 |
| 20260505182704 | 51 | 0 | 0.0 | 2.0 | 0.01 | 0.30 | 0.20 | 77 | 1009.8 |
| 20260505182604 | 51 | 0 | 0.0 | 2.0 | 0.01 | 0.30 | 0.20 | 77 | 1009.8 |
| 20260505182504 | 51 | 165 | 1.0 | 2.0 | 0.01 | 0.30 | 0.20 | 77 | 1009.8 |
| 20260505182405 | 51 | 0 | 0.0 | 3.0 | 0.01 | 0.30 | 0.20 | 76 | 1009.8 |
| 20260505182306 | 51 | 0 | 0.0 | 4.0 | 0.01 | 0.30 | 0.20 | 77 | 1009.7 |
| 20260505182205 | 51 | 0 | 0.0 | 4.0 | 0.01 | 0.30 | 0.20 | 77 | 1009.7 |
| 20260505182004 | 50 | 0 | 0.0 | 4.0 | 0.01 | 0.30 | 0.20 | 76 | 1009.6 |
| 20260505181904 | 50 | 0 | 0.0 | 4.0 | 0.01 | 0.30 | 0.20 | 76 | 1009.7 |
| 20260505181804 | 50 | 0 | 0.0 | 4.0 | 0.01 | 0.30 | 0.20 | 76 | 1009.7 |
| 20260505181704 | 50 | 0 | 0.0 | 4.0 | 0.01 | 0.30 | 0.20 | 76 | 1009.7 |
| 20260505181604 | 50 | 223 | 1.0 | 4.0 | 0.01 | 0.30 | 0.20 | 76 | 1009.6 |
| 20260505181504 | 50 | 224 | 1.0 | 4.0 | 0.01 | 0.30 | 0.20 | 76 | 1009.6 |
| 20260505181404 | 50 | 226 | 1.0 | 4.0 | 0.01 | 0.30 | 0.20 | 77 | 1009.6 |
| 20260505181305 | 50 | 232 | 2.0 | 4.0 | 0.01 | 0.30 | 0.20 | 77 | 1009.5 |
| 20260505181204 | 51 | 0 | 0.0 | 4.0 | 0.01 | 0.30 | 0.20 | 78 | 1009.4 |
| 20260505181104 | 51 | 222 | 1.0 | 4.0 | 0.01 | 0.30 | 0.20 | 78 | 1009.4 |
| 20260505181004 | 51 | 207 | 1.0 | 4.0 | 0.01 | 0.30 | 0.20 | 78 | 1009.5 |
| 20260505180805 | 50 | 188 | 2.0 | 4.0 | 0.01 | 0.30 | 0.20 | 78 | 1009.4 |
| 20260505180704 | 50 | 189 | 1.0 | 4.0 | 0.01 | 0.30 | 0.20 | 78 | 1009.5 |
| 20260505180605 | 50 | 191 | 2.0 | 4.0 | 0.01 | 0.30 | 0.20 | 77 | 1009.3 |
| 20260505180504 | 50 | 173 | 2.0 | 4.0 | 0.01 | 0.30 | 0.20 | 77 | 1009.4 |
| 20260505180404 | 50 | 153 | 2.0 | 3.0 | 0.01 | 0.30 | 0.20 | 79 | 1009.3 |
| 20260505180304 | 50 | 0 | 0.0 | 3.0 | 0.01 | 0.30 | 0.20 | 79 | 1009.4 |
| 20260505180204 | 50 | 130 | 1.0 | 3.0 | 0.01 | 0.30 | 0.20 | 79 | 1009.3 |
| 20260505180104 | 50 | 136 | 1.0 | 3.0 | 0.01 | 0.30 | 0.20 | 80 | 1009.3 |
| 20260505175905 | 50 | 0 | 0.0 | 3.0 | 0.00 | 0.28 | 0.19 | 80 | 1009.3 |
| 20260505175804 | 50 | 0 | 0.0 | 3.0 | 0.00 | 0.28 | 0.19 | 80 | 1009.4 |
| 20260505175704 | 50 | 0 | 0.0 | 3.0 | 0.00 | 0.28 | 0.19 | 80 | 1009.2 |
| 20260505175605 | 50 | 129 | 1.0 | 3.0 | 0.00 | 0.28 | 0.19 | 80 | 1009.3 |
| 20260505175504 | 50 | 137 | 1.0 | 3.0 | 0.00 | 0.28 | 0.19 | 80 | 1009.2 |
| 20260505175404 | 50 | 0 | 0.0 | 3.0 | 0.00 | 0.28 | 0.19 | 80 | 1009.3 |
| 20260505175305 | 50 | 0 | 0.0 | 3.0 | 0.00 | 0.28 | 0.19 | 80 | 1009.4 |
| 20260505175204 | 50 | 139 | 1.0 | 3.0 | 0.00 | 0.28 | 0.19 | 79 | 1009.3 |
| 20260505175105 | 50 | 0 | 0.0 | 3.0 | 0.00 | 0.28 | 0.19 | 79 | 1009.3 |
| 20260505175004 | 50 | 0 | 0.0 | 3.0 | 0.00 | 0.28 | 0.19 | 79 | 1009.3 |
| 20260505174905 | 50 | 134 | 1.0 | 3.0 | 0.00 | 0.28 | 0.19 | 79 | 1009.3 |
| 20260505174804 | 50 | 140 | 1.0 | 3.0 | 0.00 | 0.28 | 0.19 | 79 | 1009.3 |
| 20260505174604 | 50 | 0 | 0.0 | 3.0 | 0.00 | 0.28 | 0.19 | 79 | 1009.2 |
| 20260505174504 | 50 | 0 | 0.0 | 3.0 | 0.00 | 0.28 | 0.19 | 79 | 1009.2 |
| 20260505174304 | 50 | 149 | 1.0 | 3.0 | 0.00 | 0.28 | 0.19 | 79 | 1009.1 |
| 20260505174204 | 50 | 135 | 2.0 | 4.0 | 0.00 | 0.28 | 0.19 | 79 | 1009.2 |
| 20260505174105 | 50 | 130 | 2.0 | 4.0 | 0.00 | 0.28 | 0.19 | 79 | 1009.1 |
| 20260505174004 | 50 | 135 | 1.0 | 4.0 | 0.00 | 0.28 | 0.19 | 79 | 1009.1 |
| 20260505173804 | 51 | 139 | 1.0 | 4.0 | 0.00 | 0.28 | 0.19 | 79 | 1009.1 |
| 20260505173705 | 51 | 136 | 1.0 | 4.0 | 0.00 | 0.28 | 0.19 | 79 | 1009.0 |
| 20260505173604 | 51 | 0 | 0.0 | 4.0 | 0.00 | 0.28 | 0.19 | 79 | 1009.0 |
| 20260505173505 | 51 | 117 | 2.0 | 4.0 | 0.00 | 0.28 | 0.19 | 79 | 1009.0 |
| 20260505173404 | 51 | 117 | 2.0 | 4.0 | 0.00 | 0.28 | 0.19 | 78 | 1009.0 |
| 20260505173304 | 50 | 124 | 2.0 | 4.0 | 0.00 | 0.28 | 0.19 | 78 | 1008.9 |
| 20260505173205 | 50 | 174 | 1.0 | 2.0 | 0.00 | 0.28 | 0.19 | 78 | 1008.9 |
| 20260505173104 | 50 | 0 | 0.0 | 2.0 | 0.00 | 0.28 | 0.19 | 78 | 1008.9 |
| 20260505172905 | 50 | 0 | 0.0 | 4.0 | 0.00 | 0.28 | 0.19 | 78 | 1008.8 |
| 20260505172804 | 50 | 0 | 0.0 | 4.0 | 0.00 | 0.28 | 0.19 | 79 | 1008.8 |
| 20260505172705 | 50 | 0 | 0.0 | 4.0 | 0.00 | 0.28 | 0.19 | 79 | 1008.8 |
| 20260505172604 | 50 | 0 | 0.0 | 4.0 | 0.00 | 0.28 | 0.19 | 79 | 1008.8 |
| 20260505172504 | 50 | 0 | 0.0 | 4.0 | 0.00 | 0.28 | 0.19 | 79 | 1008.7 |
| 20260505172405 | 50 | 0 | 0.0 | 4.0 | 0.00 | 0.28 | 0.19 | 79 | 1008.7 |
| 20260505172306 | 50 | 0 | 0.0 | 4.0 | 0.00 | 0.28 | 0.19 | 79 | 1008.8 |
| 20260505172205 | 50 | 0 | 0.0 | 4.0 | 0.00 | 0.28 | 0.19 | 79 | 1008.8 |
| 20260505172104 | 50 | 0 | 0.0 | 4.0 | 0.00 | 0.28 | 0.19 | 79 | 1008.7 |
| 20260505172005 | 50 | 216 | 2.0 | 4.0 | 0.00 | 0.28 | 0.19 | 79 | 1008.6 |
| 20260505171805 | 50 | 210 | 2.0 | 4.0 | 0.00 | 0.28 | 0.19 | 80 | 1008.7 |
| 20260505171604 | 49 | 0 | 0.0 | 2.0 | 0.00 | 0.28 | 0.19 | 81 | 1008.9 |
| 20260505171505 | 49 | 0 | 0.0 | 2.0 | 0.00 | 0.28 | 0.19 | 81 | 1008.5 |
| 20260505171206 | 49 | 0 | 0.0 | 2.0 | 0.00 | 0.28 | 0.19 | 81 | 1008.8 |
| 20260505171104 | 49 | 0 | 0.0 | 2.0 | 0.00 | 0.28 | 0.19 | 81 | 1008.9 |
| 20260505171004 | 49 | 0 | 0.0 | 2.0 | 0.00 | 0.28 | 0.19 | 82 | 1008.8 |
| 20260505170804 | 49 | 0 | 0.0 | 2.0 | 0.00 | 0.28 | 0.19 | 83 | 1008.9 |
| 20260505170605 | 49 | 0 | 0.0 | 2.0 | 0.00 | 0.28 | 0.19 | 84 | 1009.0 |
| 20260505170504 | 49 | 0 | 0.0 | 2.0 | 0.00 | 0.28 | 0.19 | 84 | 1009.0 |
| 20260505170405 | 49 | 0 | 0.0 | 2.0 | 0.00 | 0.28 | 0.19 | 84 | 1008.9 |
| 20260505170304 | 49 | 0 | 0.0 | 3.0 | 0.00 | 0.28 | 0.19 | 84 | 1008.9 |
| 20260505170204 | 49 | 0 | 0.0 | 3.0 | 0.00 | 0.28 | 0.19 | 84 | 1008.9 |
| 20260505170004 | 49 | 0 | 0.0 | 4.0 | 0.00 | 0.28 | 0.19 | 85 | 1008.8 |
| 20260505165904 | 49 | 0 | 0.0 | 4.0 | 0.00 | 0.28 | 0.19 | 85 | 1008.8 |
| 20260505165804 | 49 | 0 | 0.0 | 4.0 | 0.00 | 0.28 | 0.19 | 85 | 1008.8 |
| 20260505165704 | 49 | 142 | 1.0 | 4.0 | 0.00 | 0.28 | 0.19 | 85 | 1008.7 |
| 20260505165604 | 49 | 139 | 1.0 | 4.0 | 0.00 | 0.28 | 0.19 | 86 | 1008.7 |
| 20260505165505 | 49 | 129 | 1.0 | 4.0 | 0.00 | 0.28 | 0.19 | 86 | 1008.7 |
| 20260505165404 | 49 | 126 | 1.0 | 4.0 | 0.00 | 0.28 | 0.19 | 86 | 1008.7 |
| 20260505165306 | 49 | 118 | 2.0 | 4.0 | 0.00 | 0.28 | 0.19 | 86 | 1008.7 |
| 20260505165005 | 49 | 116 | 2.0 | 4.0 | 0.00 | 0.28 | 0.19 | 87 | 1008.6 |
| 20260505164804 | 49 | 116 | 1.0 | 4.0 | 0.00 | 0.28 | 0.19 | 87 | 1008.6 |
| 20260505164704 | 49 | 0 | 0.0 | 4.0 | 0.00 | 0.28 | 0.19 | 87 | 1008.6 |
| 20260505164604 | 49 | 120 | 2.0 | 4.0 | 0.00 | 0.28 | 0.19 | 88 | 1008.7 |
| 20260505164504 | 49 | 142 | 2.0 | 4.0 | 0.00 | 0.28 | 0.19 | 88 | 1008.6 |
| 20260505164404 | 48 | 166 | 2.0 | 4.0 | 0.00 | 0.28 | 0.19 | 88 | 1008.6 |
| 20260505164204 | 48 | 0 | 0.0 | 4.0 | 0.00 | 0.28 | 0.19 | 88 | 1008.6 |
| 20260505163804 | 48 | 0 | 0.0 | 4.0 | 0.00 | 0.28 | 0.19 | 88 | 1008.6 |
| 20260505163704 | 48 | 0 | 0.0 | 4.0 | 0.00 | 0.28 | 0.19 | 88 | 1008.5 |
| 20260505163605 | 48 | 198 | 1.0 | 4.0 | 0.00 | 0.28 | 0.19 | 88 | 1008.6 |
| 20260505163504 | 48 | 191 | 2.0 | 4.0 | 0.00 | 0.28 | 0.19 | 89 | 1008.6 |
| 20260505163305 | 48 | 161 | 1.0 | 4.0 | 0.00 | 0.28 | 0.19 | 90 | 1008.6 |
| 20260505163205 | 48 | 144 | 2.0 | 4.0 | 0.00 | 0.28 | 0.19 | 90 | 1008.6 |
| 20260505163105 | 48 | 141 | 1.0 | 4.0 | 0.00 | 0.28 | 0.19 | 91 | 1008.6 |
| 20260505162905 | 47 | 128 | 2.0 | 3.0 | 0.00 | 0.28 | 0.19 | 91 | 1008.6 |
| 20260505162805 | 47 | 0 | 0.0 | 3.0 | 0.00 | 0.28 | 0.19 | 91 | 1008.5 |
| 20260505162704 | 47 | 137 | 1.0 | 3.0 | 0.00 | 0.28 | 0.19 | 91 | 1008.5 |
| 20260505162604 | 47 | 137 | 1.0 | 3.0 | 0.00 | 0.28 | 0.19 | 91 | 1008.5 |
| 20260505162504 | 47 | 132 | 2.0 | 3.0 | 0.00 | 0.28 | 0.19 | 91 | 1008.6 |
| 20260505162306 | 47 | 0 | 0.0 | 3.0 | 0.00 | 0.28 | 0.19 | 91 | 1008.4 |
| 20260505162204 | 47 | 0 | 0.0 | 3.0 | 0.00 | 0.28 | 0.19 | 91 | 1008.5 |
| 20260505162105 | 47 | 135 | 1.0 | 3.0 | 0.00 | 0.28 | 0.19 | 91 | 1008.3 |
| 20260505161904 | 47 | 0 | 0.0 | 4.0 | 0.00 | 0.28 | 0.19 | 91 | 1008.5 |
| 20260505161805 | 46 | 0 | 0.0 | 4.0 | 0.00 | 0.28 | 0.19 | 91 | 1008.5 |
| 20260505161604 | 46 | 125 | 1.0 | 4.0 | 0.00 | 0.28 | 0.19 | 91 | 1008.6 |
| 20260505161404 | 46 | 123 | 1.0 | 4.0 | 0.00 | 0.28 | 0.19 | 91 | 1008.6 |
| 20260505161204 | 46 | 111 | 2.0 | 4.0 | 0.00 | 0.28 | 0.19 | 91 | 1008.6 |
| 20260505161104 | 46 | 112 | 2.0 | 4.0 | 0.00 | 0.28 | 0.19 | 91 | 1008.4 |
| 20260505161004 | 46 | 113 | 2.0 | 4.0 | 0.00 | 0.28 | 0.19 | 91 | 1008.5 |
| 20260505160904 | 46 | 119 | 1.0 | 4.0 | 0.00 | 0.28 | 0.19 | 91 | 1008.4 |
| 20260505160804 | 46 | 116 | 2.0 | 4.0 | 0.00 | 0.28 | 0.19 | 91 | 1008.5 |
| 20260505160704 | 46 | 114 | 2.0 | 4.0 | 0.00 | 0.28 | 0.19 | 91 | 1008.4 |
| 20260505160604 | 46 | 109 | 2.0 | 4.0 | 0.00 | 0.28 | 0.19 | 91 | 1008.6 |
| 20260505160504 | 46 | 106 | 2.0 | 4.0 | 0.00 | 0.28 | 0.19 | 91 | 1008.5 |
| 20260505160404 | 46 | 100 | 2.0 | 4.0 | 0.00 | 0.28 | 0.19 | 91 | 1008.5 |
| 20260505160304 | 46 | 98 | 2.0 | 4.0 | 0.00 | 0.28 | 0.19 | 92 | 1008.4 |
| 20260505160104 | 46 | 113 | 2.0 | 4.0 | 0.00 | 0.28 | 0.19 | 92 | 1008.5 |
| 20260505153304 | 46 | 0 | 0.0 | 4.0 | 0.00 | 0.28 | 0.19 | 92 | 1008.1 |
| 20260505153204 | 46 | 0 | 0.0 | 4.0 | 0.00 | 0.28 | 0.19 | 92 | 1008.1 |
| 20260505153004 | 46 | 0 | 0.0 | 4.0 | 0.00 | 0.28 | 0.19 | 92 | 1008.1 |
| 20260505152904 | 46 | 231 | 1.0 | 6.0 | 0.00 | 0.28 | 0.19 | 92 | 1008.1 |
| 20260505152804 | 46 | 0 | 0.0 | 6.0 | 0.00 | 0.28 | 0.19 | 92 | 1008.1 |
| 20260505152607 | 46 | 0 | 0.0 | 6.0 | 0.00 | 0.28 | 0.19 | 92 | 1008.0 |
| 20260505152504 | 46 | 230 | 2.0 | 6.0 | 0.00 | 0.28 | 0.19 | 92 | 1007.9 |
| 20260505152404 | 46 | 234 | 2.0 | 6.0 | 0.00 | 0.28 | 0.19 | 92 | 1008.0 |
| 20260505152305 | 46 | 238 | 2.0 | 6.0 | 0.00 | 0.28 | 0.19 | 92 | 1008.0 |
| 20260505152104 | 46 | 234 | 2.0 | 6.0 | 0.01 | 0.28 | 0.19 | 92 | 1008.0 |
| 20260505152005 | 46 | 245 | 3.0 | 6.0 | 0.01 | 0.28 | 0.19 | 93 | 1008.0 |
| 20260505151904 | 46 | 247 | 2.0 | 6.0 | 0.01 | 0.28 | 0.19 | 93 | 1008.0 |
| 20260505151804 | 46 | 251 | 3.0 | 6.0 | 0.01 | 0.28 | 0.19 | 93 | 1008.0 |
| 20260505151604 | 46 | 256 | 2.0 | 6.0 | 0.01 | 0.28 | 0.19 | 94 | 1007.9 |
| 20260505151505 | 46 | 258 | 2.0 | 6.0 | 0.01 | 0.28 | 0.19 | 94 | 1007.9 |
| 20260505151304 | 46 | 263 | 3.0 | 6.0 | 0.01 | 0.28 | 0.19 | 94 | 1007.9 |
| 20260505151204 | 46 | 267 | 4.0 | 6.0 | 0.01 | 0.28 | 0.19 | 95 | 1007.9 |
| 20260505151104 | 46 | 270 | 4.0 | 5.0 | 0.02 | 0.28 | 0.19 | 95 | 1007.9 |
| 20260505150804 | 46 | 261 | 3.0 | 6.0 | 0.02 | 0.28 | 0.19 | 95 | 1007.9 |
| 20260505150704 | 46 | 261 | 2.0 | 6.0 | 0.02 | 0.28 | 0.19 | 95 | 1007.9 |
| 20260505150604 | 46 | 266 | 2.0 | 6.0 | 0.02 | 0.28 | 0.19 | 95 | 1007.9 |
| 20260505150504 | 45 | 268 | 3.0 | 6.0 | 0.02 | 0.28 | 0.19 | 95 | 1007.9 |
| 20260505150304 | 45 | 264 | 3.0 | 6.0 | 0.02 | 0.28 | 0.19 | 95 | 1007.9 |
| 20260505150204 | 45 | 263 | 3.0 | 6.0 | 0.02 | 0.28 | 0.19 | 95 | 1008.0 |
| 20260505140604 | 45 | 0 | 0.0 | 2.0 | 0.08 | 0.26 | 0.17 | 95 | 1007.4 |
| 20260505140504 | 45 | 0 | 0.0 | 3.0 | 0.08 | 0.26 | 0.17 | 95 | 1007.5 |
| 20260505140404 | 45 | 0 | 0.0 | 4.0 | 0.08 | 0.26 | 0.17 | 95 | 1007.5 |
| 20260505140304 | 45 | 0 | 0.0 | 4.0 | 0.08 | 0.26 | 0.17 | 95 | 1007.5 |
| 20260505140204 | 45 | 0 | 0.0 | 5.0 | 0.08 | 0.26 | 0.17 | 95 | 1007.4 |
| 20260505140104 | 45 | 0 | 0.0 | 5.0 | 0.08 | 0.26 | 0.17 | 95 | 1007.4 |
| 20260505130304 | 45 | 87 | 2.0 | 6.0 | 0.05 | 0.18 | 0.08 | 94 | 1007.0 |
| 20260505130204 | 45 | 87 | 2.0 | 6.0 | 0.05 | 0.18 | 0.08 | 94 | 1007.1 |
| 20260505124804 | 45 | 131 | 2.0 | 4.0 | 0.04 | 0.17 | 0.07 | 93 | 1006.8 |
| 20260505124704 | 45 | 130 | 2.0 | 2.0 | 0.04 | 0.17 | 0.07 | 93 | 1006.6 |
| 20260505124604 | 45 | 130 | 1.0 | 2.0 | 0.04 | 0.17 | 0.07 | 93 | 1006.5 |
| 20260505124505 | 45 | 137 | 1.0 | 2.0 | 0.02 | 0.15 | 0.06 | 93 | 1006.5 |
| 20260505124404 | 45 | 0 | 0.0 | 1.0 | 0.02 | 0.15 | 0.06 | 93 | 1006.4 |
| 20260505124304 | 45 | 0 | 0.0 | 2.0 | 0.02 | 0.15 | 0.06 | 93 | 1006.3 |
| 20260505124104 | 45 | 0 | 0.0 | 2.0 | 0.02 | 0.15 | 0.06 | 93 | 1006.3 |
| 20260505123903 | 45 | 0 | 0.0 | 2.0 | 0.02 | 0.15 | 0.06 | 93 | 1006.2 |
| 20260505123704 | 45 | 0 | 0.0 | 2.0 | 0.04 | 0.15 | 0.06 | 93 | 1006.2 |
| 20260505123604 | 45 | 0 | 0.0 | 2.0 | 0.04 | 0.15 | 0.06 | 93 | 1006.2 |
| 20260505123304 | 45 | 0 | 0.0 | 2.0 | 0.04 | 0.15 | 0.06 | 93 | 1006.3 |
| 20260505123204 | 45 | 0 | 0.0 | 2.0 | 0.04 | 0.15 | 0.06 | 93 | 1006.4 |
| 20260505123104 | 45 | 0 | 0.0 | 2.0 | 0.04 | 0.15 | 0.06 | 93 | 1006.4 |
| 20260505122904 | 45 | 0 | 0.0 | 2.0 | 0.04 | 0.15 | 0.06 | 93 | 1006.4 |
| 20260505122804 | 45 | 0 | 0.0 | 2.0 | 0.04 | 0.15 | 0.06 | 93 | 1006.4 |
| 20260505122704 | 45 | 0 | 0.0 | 2.0 | 0.04 | 0.15 | 0.06 | 94 | 1006.4 |
| 20260505122604 | 45 | 0 | 0.0 | 2.0 | 0.04 | 0.15 | 0.06 | 93 | 1006.3 |
| 20260505122504 | 45 | 0 | 0.0 | 2.0 | 0.04 | 0.15 | 0.06 | 93 | 1006.4 |
| 20260505122404 | 45 | 0 | 0.0 | 2.0 | 0.04 | 0.15 | 0.06 | 93 | 1006.4 |
| 20260505122305 | 45 | 0 | 0.0 | 2.0 | 0.05 | 0.15 | 0.06 | 93 | 1006.3 |
| 20260505122205 | 45 | 248 | 1.0 | 2.0 | 0.04 | 0.14 | 0.05 | 93 | 1006.4 |
| 20260505122104 | 45 | 0 | 0.0 | 2.0 | 0.04 | 0.14 | 0.05 | 93 | 1006.4 |
| 20260505122004 | 45 | 239 | 1.0 | 2.0 | 0.04 | 0.14 | 0.05 | 94 | 1006.4 |
| 20260505121904 | 45 | 240 | 1.0 | 2.0 | 0.04 | 0.14 | 0.05 | 93 | 1006.3 |
| 20260505121804 | 45 | 0 | 0.0 | 2.0 | 0.04 | 0.14 | 0.05 | 94 | 1006.3 |
| 20260505121504 | 45 | 0 | 0.0 | 2.0 | 0.05 | 0.14 | 0.05 | 93 | 1006.2 |
| 20260505121404 | 45 | 0 | 0.0 | 2.0 | 0.05 | 0.14 | 0.05 | 93 | 1006.3 |
| 20260505121304 | 45 | 0 | 0.0 | 2.0 | 0.05 | 0.14 | 0.05 | 93 | 1006.3 |
| 20260505121204 | 45 | 223 | 1.0 | 2.0 | 0.05 | 0.14 | 0.05 | 93 | 1006.3 |
| 20260505121104 | 45 | 0 | 0.0 | 2.0 | 0.05 | 0.14 | 0.05 | 93 | 1006.3 |
| 20260505121004 | 45 | 0 | 0.0 | 1.0 | 0.05 | 0.14 | 0.05 | 93 | 1006.4 |
| 20260505120803 | 45 | 0 | 0.0 | 2.0 | 0.05 | 0.14 | 0.05 | 93 | 1006.3 |
| 20260505120704 | 46 | 0 | 0.0 | 2.0 | 0.04 | 0.13 | 0.04 | 93 | 1006.3 |
| 20260505120604 | 46 | 0 | 0.0 | 2.0 | 0.04 | 0.13 | 0.04 | 93 | 1006.3 |
| 20260505120503 | 46 | 0 | 0.0 | 2.0 | 0.04 | 0.13 | 0.04 | 93 | 1006.3 |
| 20260505120404 | 46 | 0 | 0.0 | 2.0 | 0.04 | 0.13 | 0.04 | 93 | 1006.3 |
| 20260505120304 | 46 | 0 | 0.0 | 2.0 | 0.04 | 0.13 | 0.04 | 93 | 1006.3 |
| 20260505120204 | 46 | 0 | 0.0 | 2.0 | 0.04 | 0.13 | 0.04 | 93 | 1006.2 |
| 20260505120104 | 46 | 0 | 0.0 | 2.0 | 0.04 | 0.13 | 0.04 | 93 | 1006.2 |
| 20260505120005 | 46 | 0 | 0.0 | 2.0 | 0.04 | 0.13 | 0.04 | 93 | 1006.3 |
| 20260505115905 | 46 | 0 | 0.0 | 2.0 | 0.04 | 0.13 | 0.04 | 93 | 1006.3 |
| 20260505115804 | 46 | 0 | 0.0 | 2.0 | 0.04 | 0.13 | 0.04 | 93 | 1006.3 |
| 20260505115704 | 46 | 0 | 0.0 | 2.0 | 0.04 | 0.13 | 0.04 | 93 | 1006.4 |
| 20260505115605 | 46 | 247 | 1.0 | 2.0 | 0.04 | 0.13 | 0.04 | 93 | 1006.4 |
| 20260505115504 | 46 | 250 | 1.0 | 2.0 | 0.04 | 0.13 | 0.04 | 93 | 1006.4 |
| 20260505115404 | 46 | 249 | 1.0 | 2.0 | 0.04 | 0.13 | 0.04 | 93 | 1006.4 |
| 20260505115305 | 46 | 0 | 0.0 | 2.0 | 0.04 | 0.13 | 0.04 | 93 | 1006.3 |
| 20260505115104 | 46 | 252 | 1.0 | 2.0 | 0.04 | 0.13 | 0.04 | 93 | 1006.3 |
| 20260505115004 | 46 | 251 | 1.0 | 2.0 | 0.04 | 0.13 | 0.04 | 93 | 1006.3 |
| 20260505114904 | 46 | 254 | 1.0 | 2.0 | 0.04 | 0.13 | 0.04 | 93 | 1006.2 |
| 20260505114804 | 46 | 259 | 1.0 | 2.0 | 0.04 | 0.13 | 0.04 | 92 | 1006.3 |
| 20260505114603 | 46 | 270 | 1.0 | 2.0 | 0.04 | 0.13 | 0.04 | 92 | 1006.4 |
| 20260505114504 | 46 | 270 | 1.0 | 2.0 | 0.04 | 0.13 | 0.04 | 92 | 1006.4 |
| 20260505114404 | 46 | 270 | 1.0 | 2.0 | 0.04 | 0.13 | 0.04 | 92 | 1006.4 |
| 20260505114304 | 46 | 270 | 1.0 | 2.0 | 0.04 | 0.13 | 0.04 | 92 | 1006.4 |
| 20260505114204 | 46 | 0 | 0.0 | 2.0 | 0.04 | 0.13 | 0.04 | 92 | 1006.4 |
| 20260505114004 | 46 | 0 | 0.0 | 1.0 | 0.04 | 0.13 | 0.04 | 92 | 1006.4 |
| 20260505113903 | 46 | 0 | 0.0 | 1.0 | 0.04 | 0.13 | 0.04 | 92 | 1006.5 |
| 20260505113804 | 46 | 0 | 0.0 | 1.0 | 0.04 | 0.13 | 0.04 | 92 | 1006.5 |
| 20260505113604 | 46 | 0 | 0.0 | 1.0 | 0.02 | 0.12 | 0.02 | 92 | 1006.4 |
| 20260505113504 | 46 | 0 | 0.0 | 1.0 | 0.02 | 0.12 | 0.02 | 92 | 1006.5 |
| 20260505113404 | 46 | 0 | 0.0 | 1.0 | 0.02 | 0.12 | 0.02 | 92 | 1006.4 |
| 20260505113304 | 46 | 0 | 0.0 | 1.0 | 0.02 | 0.12 | 0.02 | 92 | 1006.5 |
| 20260505113205 | 46 | 0 | 0.0 | 1.0 | 0.02 | 0.12 | 0.02 | 92 | 1006.5 |
| 20260505113104 | 46 | 0 | 0.0 | 1.0 | 0.02 | 0.12 | 0.02 | 92 | 1006.5 |
| 20260505112904 | 46 | 0 | 0.0 | 1.0 | 0.02 | 0.12 | 0.02 | 92 | 1006.4 |
| 20260505112805 | 46 | 0 | 0.0 | 1.0 | 0.02 | 0.12 | 0.02 | 92 | 1006.5 |
| 20260505112404 | 46 | 0 | 0.0 | 1.0 | 0.01 | 0.11 | 0.01 | 92 | 1006.4 |
| 20260505112305 | 46 | 0 | 0.0 | 1.0 | 0.01 | 0.11 | 0.01 | 92 | 1006.4 |
| 20260505112204 | 46 | 0 | 0.0 | 1.0 | 0.01 | 0.11 | 0.01 | 92 | 1006.4 |
| 20260505112104 | 46 | 0 | 0.0 | 1.0 | 0.01 | 0.11 | 0.01 | 92 | 1006.4 |
| 20260505111905 | 46 | 0 | 0.0 | 1.0 | 0.01 | 0.11 | 0.01 | 92 | 1006.4 |
| 20260505111804 | 46 | 0 | 0.0 | 1.0 | 0.01 | 0.11 | 0.01 | 92 | 1006.4 |
| 20260505111705 | 46 | 0 | 0.0 | 0.0 | 0.01 | 0.11 | 0.01 | 92 | 1006.4 |
| 20260505111604 | 46 | 0 | 0.0 | 0.0 | 0.00 | 0.09 | 0.00 | 92 | 1006.4 |
| 20260505111404 | 46 | 0 | 0.0 | 0.0 | 0.00 | 0.09 | 0.00 | 92 | 1006.4 |
| 20260505111304 | 46 | 0 | 0.0 | 0.0 | 0.00 | 0.09 | 0.00 | 92 | 1006.3 |
| 20260505111204 | 46 | 0 | 0.0 | 0.0 | 0.00 | 0.09 | 0.00 | 92 | 1006.4 |
| 20260505111103 | 46 | 0 | 0.0 | 0.0 | 0.00 | 0.09 | 0.00 | 92 | 1006.3 |
| 20260505111004 | 46 | 0 | 0.0 | 0.0 | 0.00 | 0.09 | 0.00 | 92 | 1006.3 |
| 20260505110904 | 46 | 0 | 0.0 | 0.0 | 0.00 | 0.09 | 0.00 | 92 | 1006.4 |
| 20260505110804 | 46 | 0 | 0.0 | 0.0 | 0.00 | 0.09 | 0.00 | 92 | 1006.3 |
| 20260505110704 | 46 | 0 | 0.0 | 0.0 | 0.00 | 0.09 | 0.00 | 92 | 1006.3 |
| 20260505110604 | 46 | 0 | 0.0 | 0.0 | 0.00 | 0.09 | 0.00 | 92 | 1006.3 |
| 20260505110504 | 46 | 0 | 0.0 | 0.0 | 0.00 | 0.09 | 0.00 | 92 | 1006.2 |
| 20260505110304 | 46 | 0 | 0.0 | 0.0 | 0.00 | 0.09 | 0.00 | 92 | 1006.5 |
| 20260505110204 | 46 | 0 | 0.0 | 0.0 | 0.00 | 0.09 | 0.00 | 92 | 1006.4 |
| 20260505110104 | 46 | 0 | 0.0 | 0.0 | 0.00 | 0.09 | 0.00 | 92 | 1006.3 |
| 20260505094204 | 46 | 0 | 0.0 | 3.0 | 0.00 | 0.09 | 0.00 | 91 | 1006.4 |
| 20260505094104 | 46 | 0 | 0.0 | 3.0 | 0.00 | 0.09 | 0.00 | 90 | 1006.4 |
| 20260505093904 | 46 | 0 | 0.0 | 4.0 | 0.00 | 0.09 | 0.00 | 90 | 1006.4 |
| 20260505093804 | 46 | 0 | 0.0 | 6.0 | 0.00 | 0.09 | 0.00 | 90 | 1006.4 |
| 20260505093704 | 46 | 0 | 0.0 | 6.0 | 0.00 | 0.09 | 0.00 | 91 | 1006.3 |
| 20260505093604 | 46 | 270 | 1.0 | 6.0 | 0.00 | 0.09 | 0.00 | 90 | 1006.3 |
| 20260505093504 | 46 | 270 | 1.0 | 7.0 | 0.00 | 0.09 | 0.00 | 90 | 1006.3 |
| 20260505093404 | 46 | 270 | 1.0 | 7.0 | 0.00 | 0.09 | 0.00 | 90 | 1006.3 |
| 20260505093304 | 46 | 270 | 2.0 | 7.0 | 0.00 | 0.09 | 0.00 | 90 | 1006.4 |
| 20260505093203 | 46 | 270 | 1.0 | 7.0 | 0.00 | 0.09 | 0.00 | 90 | 1006.4 |
| 20260505093104 | 46 | 272 | 2.0 | 7.0 | 0.00 | 0.09 | 0.00 | 90 | 1006.2 |
| 20260505093004 | 46 | 270 | 2.0 | 7.0 | 0.00 | 0.09 | 0.00 | 90 | 1006.3 |
| 20260505092804 | 46 | 270 | 2.0 | 7.0 | 0.00 | 0.09 | 0.00 | 90 | 1006.3 |
| 20260505092604 | 46 | 270 | 4.0 | 7.0 | 0.00 | 0.09 | 0.00 | 90 | 1006.4 |
| 20260505092504 | 46 | 270 | 4.0 | 7.0 | 0.00 | 0.09 | 0.00 | 90 | 1006.6 |
| 20260505092404 | 46 | 270 | 3.0 | 5.0 | 0.00 | 0.09 | 0.00 | 90 | 1006.5 |
| 20260505092305 | 46 | 269 | 2.0 | 4.0 | 0.00 | 0.09 | 0.00 | 90 | 1006.5 |
| 20260505092204 | 46 | 268 | 2.0 | 4.0 | 0.00 | 0.09 | 0.00 | 90 | 1006.4 |
| 20260505092104 | 46 | 268 | 2.0 | 4.0 | 0.00 | 0.09 | 0.00 | 90 | 1006.5 |
| 20260505092004 | 46 | 265 | 2.0 | 4.0 | 0.00 | 0.09 | 0.00 | 90 | 1006.5 |
| 20260505091904 | 46 | 261 | 2.0 | 4.0 | 0.00 | 0.09 | 0.00 | 90 | 1006.6 |
| 20260505091804 | 46 | 257 | 2.0 | 4.0 | 0.00 | 0.09 | 0.00 | 90 | 1006.5 |
| 20260505091704 | 46 | 253 | 2.0 | 4.0 | 0.00 | 0.09 | 0.00 | 90 | 1006.4 |
| 20260505091603 | 46 | 245 | 2.0 | 4.0 | 0.00 | 0.09 | 0.00 | 90 | 1006.5 |
| 20260505091504 | 46 | 241 | 2.0 | 3.0 | 0.00 | 0.09 | 0.00 | 90 | 1006.5 |
| 20260505091404 | 46 | 235 | 2.0 | 3.0 | 0.00 | 0.09 | 0.00 | 90 | 1006.5 |
| 20260505091304 | 46 | 233 | 2.0 | 3.0 | 0.00 | 0.09 | 0.00 | 90 | 1006.4 |
| 20260505091204 | 46 | 229 | 1.0 | 3.0 | 0.00 | 0.09 | 0.00 | 90 | 1006.4 |
| 20260505091104 | 46 | 225 | 1.0 | 3.0 | 0.00 | 0.09 | 0.00 | 90 | 1006.6 |
| 20260505091004 | 46 | 223 | 2.0 | 3.0 | 0.00 | 0.09 | 0.00 | 90 | 1006.4 |
| 20260505090904 | 46 | 225 | 1.0 | 3.0 | 0.00 | 0.09 | 0.00 | 90 | 1006.4 |
| 20260505090804 | 46 | 225 | 2.0 | 3.0 | 0.00 | 0.09 | 0.00 | 90 | 1006.6 |
| 20260505090704 | 46 | 225 | 2.0 | 3.0 | 0.00 | 0.09 | 0.00 | 90 | 1006.5 |
| 20260505090604 | 46 | 225 | 2.0 | 3.0 | 0.00 | 0.09 | 0.00 | 90 | 1006.6 |
| 20260505090504 | 46 | 222 | 2.0 | 4.0 | 0.00 | 0.09 | 0.00 | 90 | 1006.5 |
| 20260505090404 | 46 | 222 | 2.0 | 4.0 | 0.00 | 0.09 | 0.00 | 90 | 1006.5 |
| 20260505090304 | 46 | 222 | 2.0 | 4.0 | 0.00 | 0.09 | 0.00 | 90 | 1006.6 |
| 20260505090204 | 46 | 225 | 2.0 | 4.0 | 0.00 | 0.09 | 0.00 | 90 | 1006.5 |
| 20260505090104 | 46 | 225 | 2.0 | 4.0 | 0.00 | 0.09 | 0.00 | 90 | 1006.6 |
| 20260505085604 | 46 | 229 | 2.0 | 4.0 | 0.00 | 0.09 | 0.00 | 90 | 1006.5 |
| 20260505085305 | 46 | 235 | 2.0 | 3.0 | 0.00 | 0.09 | 0.00 | 90 | 1006.6 |
| 20260505085205 | 46 | 225 | 2.0 | 3.0 | 0.00 | 0.09 | 0.00 | 90 | 1006.5 |
| 20260505085104 | 46 | 225 | 2.0 | 3.0 | 0.00 | 0.09 | 0.00 | 90 | 1006.5 |
| 20260505085004 | 46 | 230 | 2.0 | 3.0 | 0.00 | 0.09 | 0.00 | 90 | 1006.5 |
| 20260505084904 | 46 | 227 | 2.0 | 3.0 | 0.00 | 0.09 | 0.00 | 90 | 1006.7 |
| 20260505084804 | 46 | 230 | 1.0 | 4.0 | 0.00 | 0.09 | 0.00 | 90 | 1006.6 |
| 20260505084703 | 46 | 230 | 1.0 | 4.0 | 0.00 | 0.09 | 0.00 | 90 | 1006.6 |
| 20260505084604 | 46 | 0 | 0.0 | 4.0 | 0.00 | 0.09 | 0.00 | 90 | 1006.6 |
| 20260505084403 | 46 | 232 | 2.0 | 4.0 | 0.00 | 0.09 | 0.00 | 89 | 1006.7 |
| 20260505084304 | 46 | 236 | 1.0 | 4.0 | 0.00 | 0.09 | 0.00 | 89 | 1006.8 |
| 20260505084204 | 46 | 238 | 2.0 | 4.0 | 0.00 | 0.09 | 0.00 | 89 | 1006.8 |
| 20260505084104 | 46 | 243 | 2.0 | 4.0 | 0.00 | 0.09 | 0.00 | 89 | 1006.8 |
| 20260505084004 | 46 | 242 | 2.0 | 4.0 | 0.00 | 0.09 | 0.00 | 89 | 1006.8 |
| 20260505083903 | 46 | 243 | 2.0 | 4.0 | 0.00 | 0.09 | 0.00 | 89 | 1006.8 |
| 20260505083804 | 46 | 242 | 3.0 | 4.0 | 0.00 | 0.09 | 0.00 | 89 | 1006.7 |
| 20260505083604 | 46 | 237 | 2.0 | 4.0 | 0.00 | 0.09 | 0.00 | 89 | 1006.7 |
| 20260505083304 | 46 | 231 | 2.0 | 3.0 | 0.00 | 0.09 | 0.00 | 89 | 1006.7 |
| 20260505083205 | 46 | 0 | 0.0 | 3.0 | 0.00 | 0.09 | 0.00 | 88 | 1006.8 |
| 20260505083105 | 46 | 227 | 1.0 | 3.0 | 0.00 | 0.09 | 0.00 | 89 | 1006.7 |
| 20260505083004 | 46 | 221 | 1.0 | 3.0 | 0.00 | 0.09 | 0.00 | 88 | 1006.8 |
| 20260505082904 | 46 | 221 | 2.0 | 3.0 | 0.00 | 0.09 | 0.00 | 88 | 1006.8 |
| 20260505082804 | 46 | 218 | 2.0 | 3.0 | 0.00 | 0.09 | 0.00 | 88 | 1006.7 |
| 20260505082705 | 46 | 217 | 1.0 | 3.0 | 0.00 | 0.09 | 0.00 | 88 | 1006.8 |
| 20260505082604 | 46 | 220 | 2.0 | 3.0 | 0.00 | 0.09 | 0.00 | 88 | 1006.7 |
| 20260505082503 | 46 | 0 | 0.0 | 3.0 | 0.00 | 0.09 | 0.00 | 88 | 1006.7 |
| 20260505082404 | 46 | 0 | 0.0 | 3.0 | 0.00 | 0.09 | 0.00 | 88 | 1006.8 |
| 20260505082304 | 46 | 0 | 0.0 | 3.0 | 0.00 | 0.09 | 0.00 | 88 | 1006.6 |
| 20260505082204 | 47 | 218 | 1.0 | 3.0 | 0.00 | 0.09 | 0.00 | 88 | 1006.6 |
| 20260505082104 | 47 | 213 | 1.0 | 3.0 | 0.00 | 0.09 | 0.00 | 88 | 1006.6 |
| 20260505081904 | 47 | 222 | 1.0 | 3.0 | 0.00 | 0.09 | 0.00 | 88 | 1006.5 |
| 20260505081804 | 47 | 224 | 1.0 | 3.0 | 0.00 | 0.09 | 0.00 | 88 | 1006.5 |
| 20260505081703 | 47 | 222 | 2.0 | 4.0 | 0.00 | 0.09 | 0.00 | 88 | 1006.4 |
| 20260505081604 | 47 | 222 | 1.0 | 4.0 | 0.00 | 0.09 | 0.00 | 88 | 1006.5 |
| 20260505081504 | 47 | 225 | 1.0 | 4.0 | 0.00 | 0.09 | 0.00 | 88 | 1006.5 |
| 20260505081403 | 47 | 225 | 1.0 | 4.0 | 0.00 | 0.09 | 0.00 | 88 | 1006.5 |
| 20260505081304 | 47 | 225 | 1.0 | 4.0 | 0.00 | 0.09 | 0.00 | 87 | 1006.5 |
| 20260505081204 | 47 | 225 | 2.0 | 4.0 | 0.00 | 0.09 | 0.00 | 87 | 1006.7 |
| 20260505081104 | 47 | 229 | 2.0 | 4.0 | 0.00 | 0.09 | 0.00 | 87 | 1006.6 |
| 20260505080904 | 47 | 224 | 1.0 | 4.0 | 0.00 | 0.09 | 0.00 | 87 | 1006.7 |
| 20260505080804 | 47 | 223 | 2.0 | 4.0 | 0.00 | 0.09 | 0.00 | 87 | 1006.7 |
| 20260505080704 | 47 | 227 | 1.0 | 2.0 | 0.00 | 0.09 | 0.00 | 87 | 1006.6 |
| 20260505080604 | 47 | 226 | 1.0 | 2.0 | 0.00 | 0.09 | 0.00 | 87 | 1006.7 |
| 20260505080504 | 47 | 225 | 1.0 | 2.0 | 0.00 | 0.09 | 0.00 | 87 | 1006.7 |
| 20260505080404 | 47 | 219 | 1.0 | 2.0 | 0.00 | 0.09 | 0.00 | 87 | 1006.6 |
| 20260505080305 | 47 | 213 | 1.0 | 2.0 | 0.00 | 0.09 | 0.00 | 87 | 1006.7 |
| 20260505080204 | 47 | 209 | 1.0 | 2.0 | 0.00 | 0.09 | 0.00 | 87 | 1006.7 |
| 20260505080103 | 47 | 206 | 1.0 | 2.0 | 0.00 | 0.09 | 0.00 | 87 | 1006.8 |
| 20260505080004 | 47 | 206 | 1.0 | 2.0 | 0.00 | 0.09 | 0.00 | 87 | 1006.6 |
| 20260505075904 | 47 | 0 | 0.0 | 2.0 | 0.00 | 0.09 | 0.00 | 87 | 1006.6 |
| 20260505075803 | 47 | 0 | 0.0 | 2.0 | 0.00 | 0.09 | 0.00 | 87 | 1006.7 |
| 20260505075704 | 46 | 0 | 0.0 | 2.0 | 0.00 | 0.09 | 0.00 | 87 | 1006.8 |
| 20260505075504 | 46 | 0 | 0.0 | 2.0 | 0.00 | 0.09 | 0.00 | 87 | 1006.7 |
| 20260505075404 | 46 | 0 | 0.0 | 2.0 | 0.00 | 0.09 | 0.00 | 87 | 1006.6 |
| 20260505075304 | 46 | 184 | 1.0 | 2.0 | 0.00 | 0.09 | 0.00 | 87 | 1006.7 |
| 20260505075104 | 46 | 0 | 0.0 | 2.0 | 0.00 | 0.09 | 0.00 | 87 | 1006.7 |
| 20260505075004 | 46 | 0 | 0.0 | 2.0 | 0.00 | 0.09 | 0.00 | 87 | 1006.7 |
| 20260505074904 | 46 | 0 | 0.0 | 2.0 | 0.00 | 0.09 | 0.00 | 87 | 1006.7 |
| 20260505074804 | 46 | 0 | 0.0 | 2.0 | 0.00 | 0.09 | 0.00 | 87 | 1006.8 |
| 20260505074703 | 46 | 167 | 1.0 | 2.0 | 0.00 | 0.09 | 0.00 | 87 | 1006.8 |
| 20260505074604 | 46 | 0 | 0.0 | 2.0 | 0.00 | 0.09 | 0.00 | 87 | 1006.7 |
| 20260505074504 | 46 | 0 | 0.0 | 2.0 | 0.00 | 0.09 | 0.00 | 87 | 1006.9 |
| 20260505074403 | 46 | 0 | 0.0 | 1.0 | 0.00 | 0.09 | 0.00 | 87 | 1006.9 |
| 20260505074304 | 46 | 0 | 0.0 | 1.0 | 0.00 | 0.09 | 0.00 | 87 | 1006.9 |
| 20260505074204 | 46 | 0 | 0.0 | 2.0 | 0.00 | 0.09 | 0.00 | 87 | 1006.8 |
| 20260505074104 | 46 | 0 | 0.0 | 3.0 | 0.00 | 0.09 | 0.00 | 87 | 1006.9 |
| 20260505074004 | 46 | 0 | 0.0 | 3.0 | 0.00 | 0.09 | 0.00 | 87 | 1006.9 |
| 20260505073904 | 46 | 0 | 0.0 | 3.0 | 0.00 | 0.09 | 0.00 | 87 | 1006.9 |
| 20260505073804 | 46 | 0 | 0.0 | 3.0 | 0.00 | 0.09 | 0.00 | 87 | 1006.8 |
| 20260505073704 | 46 | 0 | 0.0 | 3.0 | 0.00 | 0.09 | 0.00 | 87 | 1006.8 |
| 20260505073504 | 46 | 0 | 0.0 | 3.0 | 0.00 | 0.09 | 0.00 | 87 | 1006.8 |
| 20260505073404 | 46 | 0 | 0.0 | 3.0 | 0.00 | 0.09 | 0.00 | 87 | 1006.9 |
| 20260505073304 | 46 | 0 | 0.0 | 3.0 | 0.00 | 0.09 | 0.00 | 87 | 1006.7 |
| 20260505073204 | 46 | 182 | 1.0 | 3.0 | 0.00 | 0.09 | 0.00 | 87 | 1006.7 |
| 20260505073104 | 46 | 144 | 1.0 | 2.0 | 0.00 | 0.09 | 0.00 | 87 | 1006.7 |
| 20260505073004 | 46 | 0 | 0.0 | 2.0 | 0.00 | 0.09 | 0.00 | 87 | 1006.8 |
| 20260505072904 | 46 | 0 | 0.0 | 2.0 | 0.00 | 0.09 | 0.00 | 87 | 1006.8 |
| 20260505072604 | 46 | 0 | 0.0 | 2.0 | 0.00 | 0.09 | 0.00 | 87 | 1006.9 |
| 20260505072505 | 46 | 0 | 0.0 | 2.0 | 0.00 | 0.09 | 0.00 | 87 | 1006.8 |
| 20260505072404 | 46 | 137 | 1.0 | 2.0 | 0.00 | 0.09 | 0.00 | 87 | 1006.9 |
| 20260505072305 | 46 | 0 | 0.0 | 2.0 | 0.00 | 0.09 | 0.00 | 87 | 1007.0 |
| 20260505072204 | 46 | 153 | 1.0 | 2.0 | 0.00 | 0.09 | 0.00 | 87 | 1006.9 |
| 20260505072104 | 46 | 0 | 0.0 | 1.0 | 0.00 | 0.09 | 0.00 | 87 | 1006.9 |
| 20260505072004 | 46 | 0 | 0.0 | 2.0 | 0.00 | 0.09 | 0.00 | 87 | 1006.9 |
| 20260505071904 | 46 | 0 | 0.0 | 3.0 | 0.00 | 0.09 | 0.00 | 87 | 1007.0 |
| 20260505071804 | 46 | 0 | 0.0 | 3.0 | 0.00 | 0.09 | 0.00 | 87 | 1006.9 |
| 20260505071704 | 46 | 0 | 0.0 | 3.0 | 0.00 | 0.09 | 0.00 | 87 | 1007.0 |
| 20260505071604 | 46 | 0 | 0.0 | 3.0 | 0.00 | 0.09 | 0.00 | 87 | 1006.9 |
| 20260505071504 | 46 | 0 | 0.0 | 3.0 | 0.00 | 0.09 | 0.00 | 87 | 1006.9 |
| 20260505071404 | 46 | 0 | 0.0 | 3.0 | 0.00 | 0.09 | 0.00 | 87 | 1006.8 |
| 20260505071304 | 46 | 0 | 0.0 | 3.0 | 0.00 | 0.09 | 0.00 | 87 | 1006.8 |
| 20260505071204 | 46 | 0 | 0.0 | 3.0 | 0.00 | 0.09 | 0.00 | 87 | 1006.7 |
| 20260505071104 | 46 | 0 | 0.0 | 3.0 | 0.00 | 0.09 | 0.00 | 87 | 1006.7 |
| 20260505071004 | 46 | 0 | 0.0 | 3.0 | 0.00 | 0.09 | 0.00 | 87 | 1006.7 |
| 20260505070904 | 46 | 98 | 1.0 | 3.0 | 0.00 | 0.09 | 0.00 | 87 | 1006.8 |
| 20260505070804 | 46 | 0 | 0.0 | 4.0 | 0.00 | 0.09 | 0.00 | 87 | 1006.7 |
| 20260505070703 | 46 | 93 | 1.0 | 4.0 | 0.00 | 0.09 | 0.00 | 87 | 1006.6 |
| 20260505070604 | 46 | 100 | 1.0 | 4.0 | 0.00 | 0.09 | 0.00 | 87 | 1006.6 |
| 20260505070503 | 46 | 105 | 1.0 | 4.0 | 0.00 | 0.09 | 0.00 | 87 | 1006.6 |
| 20260505070304 | 46 | 117 | 1.0 | 4.0 | 0.00 | 0.09 | 0.00 | 87 | 1006.5 |
| 20260505070203 | 46 | 124 | 1.0 | 4.0 | 0.00 | 0.09 | 0.00 | 87 | 1006.4 |
| 20260505070104 | 46 | 130 | 1.0 | 4.0 | 0.00 | 0.09 | 0.00 | 87 | 1006.5 |
| 20260505070005 | 46 | 130 | 1.0 | 4.0 | 0.00 | 0.09 | 0.00 | 87 | 1006.5 |
| 20260505065904 | 46 | 127 | 2.0 | 4.0 | 0.00 | 0.09 | 0.09 | 87 | 1006.5 |
| 20260505065803 | 46 | 128 | 2.0 | 4.0 | 0.00 | 0.09 | 0.09 | 87 | 1006.5 |
| 20260505065704 | 46 | 129 | 2.0 | 4.0 | 0.00 | 0.09 | 0.09 | 87 | 1006.4 |
| 20260505065604 | 46 | 129 | 2.0 | 4.0 | 0.00 | 0.09 | 0.09 | 87 | 1006.3 |
| 20260505065504 | 46 | 134 | 2.0 | 4.0 | 0.00 | 0.09 | 0.09 | 87 | 1006.4 |
| 20260505065404 | 46 | 134 | 2.0 | 4.0 | 0.00 | 0.09 | 0.09 | 87 | 1006.4 |
| 20260505065304 | 46 | 133 | 1.0 | 4.0 | 0.00 | 0.09 | 0.09 | 87 | 1006.4 |
| 20260505065203 | 46 | 129 | 2.0 | 5.0 | 0.00 | 0.09 | 0.09 | 87 | 1006.3 |
| 20260505065104 | 46 | 129 | 2.0 | 5.0 | 0.00 | 0.09 | 0.09 | 87 | 1006.4 |
| 20260505065005 | 46 | 129 | 2.0 | 5.0 | 0.00 | 0.09 | 0.09 | 86 | 1006.4 |
| 20260505064904 | 46 | 137 | 2.0 | 5.0 | 0.00 | 0.09 | 0.09 | 86 | 1006.4 |
| 20260505064804 | 46 | 138 | 1.0 | 5.0 | 0.00 | 0.09 | 0.09 | 86 | 1006.5 |
| 20260505064704 | 46 | 0 | 0.0 | 6.0 | 0.00 | 0.09 | 0.09 | 86 | 1006.4 |
| 20260505064604 | 46 | 136 | 2.0 | 6.0 | 0.00 | 0.09 | 0.09 | 87 | 1006.4 |
| 20260505064404 | 46 | 127 | 2.0 | 6.0 | 0.00 | 0.09 | 0.09 | 86 | 1006.4 |
| 20260505064204 | 46 | 132 | 3.0 | 6.0 | 0.00 | 0.09 | 0.09 | 86 | 1006.4 |
| 20260505064103 | 46 | 132 | 2.0 | 6.0 | 0.00 | 0.09 | 0.09 | 86 | 1006.4 |
| 20260505064004 | 46 | 136 | 1.0 | 6.0 | 0.00 | 0.09 | 0.09 | 86 | 1006.4 |
| 20260505063903 | 46 | 127 | 1.0 | 6.0 | 0.00 | 0.09 | 0.09 | 86 | 1006.4 |
| 20260505063804 | 46 | 131 | 2.0 | 6.0 | 0.00 | 0.09 | 0.09 | 86 | 1006.4 |
| 20260505063704 | 46 | 131 | 3.0 | 6.0 | 0.00 | 0.09 | 0.09 | 86 | 1006.4 |
| 20260505063604 | 46 | 129 | 2.0 | 6.0 | 0.00 | 0.09 | 0.09 | 86 | 1006.4 |
| 20260505063504 | 46 | 129 | 2.0 | 6.0 | 0.00 | 0.09 | 0.09 | 86 | 1006.5 |
| 20260505063404 | 46 | 128 | 2.0 | 6.0 | 0.00 | 0.09 | 0.09 | 86 | 1006.5 |
| 20260505063303 | 46 | 128 | 3.0 | 6.0 | 0.00 | 0.09 | 0.09 | 86 | 1006.5 |
| 20260505063204 | 46 | 123 | 2.0 | 6.0 | 0.00 | 0.09 | 0.09 | 86 | 1006.5 |
| 20260505063104 | 46 | 117 | 2.0 | 6.0 | 0.00 | 0.09 | 0.09 | 86 | 1006.5 |
| 20260505063004 | 46 | 110 | 2.0 | 6.0 | 0.00 | 0.09 | 0.09 | 86 | 1006.6 |
| 20260505062904 | 46 | 114 | 2.0 | 6.0 | 0.00 | 0.09 | 0.09 | 86 | 1006.6 |
| 20260505062804 | 46 | 110 | 2.0 | 5.0 | 0.00 | 0.09 | 0.09 | 86 | 1006.5 |
| 20260505062705 | 46 | 113 | 2.0 | 5.0 | 0.00 | 0.09 | 0.09 | 86 | 1006.5 |
| 20260505062604 | 46 | 114 | 2.0 | 5.0 | 0.00 | 0.09 | 0.09 | 86 | 1006.6 |
| 20260505062504 | 46 | 119 | 2.0 | 5.0 | 0.00 | 0.09 | 0.09 | 86 | 1006.5 |
| 20260505062404 | 46 | 121 | 2.0 | 5.0 | 0.00 | 0.09 | 0.09 | 86 | 1006.5 |
| 20260505062304 | 46 | 119 | 2.0 | 5.0 | 0.00 | 0.09 | 0.09 | 86 | 1006.5 |
| 20260505062203 | 46 | 120 | 2.0 | 5.0 | 0.00 | 0.09 | 0.09 | 86 | 1006.5 |
| 20260505062104 | 46 | 131 | 1.0 | 5.0 | 0.00 | 0.09 | 0.09 | 86 | 1006.4 |
| 20260505062004 | 46 | 133 | 2.0 | 5.0 | 0.00 | 0.09 | 0.09 | 86 | 1006.6 |
| 20260505061904 | 46 | 133 | 2.0 | 5.0 | 0.00 | 0.09 | 0.09 | 86 | 1006.5 |
| 20260505061804 | 46 | 136 | 2.0 | 8.0 | 0.00 | 0.09 | 0.09 | 86 | 1006.4 |
| 20260505061704 | 46 | 131 | 2.0 | 8.0 | 0.01 | 0.09 | 0.09 | 85 | 1006.4 |
| 20260505061505 | 46 | 131 | 2.0 | 8.0 | 0.01 | 0.09 | 0.09 | 86 | 1006.5 |
| 20260505061404 | 46 | 129 | 2.0 | 8.0 | 0.01 | 0.09 | 0.09 | 85 | 1006.4 |
| 20260505061304 | 46 | 131 | 2.0 | 8.0 | 0.01 | 0.09 | 0.09 | 85 | 1006.5 |
| 20260505061104 | 46 | 132 | 2.0 | 8.0 | 0.01 | 0.09 | 0.09 | 85 | 1006.4 |
| 20260505061004 | 46 | 135 | 3.0 | 8.0 | 0.01 | 0.09 | 0.09 | 85 | 1006.3 |
| 20260505060904 | 46 | 135 | 2.0 | 8.0 | 0.01 | 0.09 | 0.09 | 85 | 1006.4 |
| 20260505060703 | 46 | 132 | 3.0 | 8.0 | 0.01 | 0.09 | 0.09 | 86 | 1006.4 |
| 20260505060504 | 46 | 128 | 3.0 | 8.0 | 0.01 | 0.09 | 0.09 | 86 | 1006.4 |
| 20260505060404 | 46 | 125 | 3.0 | 8.0 | 0.01 | 0.09 | 0.09 | 86 | 1006.4 |
| 20260505060304 | 46 | 125 | 3.0 | 8.0 | 0.01 | 0.09 | 0.09 | 86 | 1006.3 |
| 20260505060104 | 46 | 114 | 3.0 | 8.0 | 0.01 | 0.09 | 0.09 | 86 | 1006.4 |
| 20260505055804 | 46 | 114 | 4.0 | 7.0 | 0.01 | 0.09 | 0.09 | 86 | 1006.3 |
| 20260505055704 | 46 | 121 | 2.0 | 7.0 | 0.01 | 0.09 | 0.09 | 86 | 1006.4 |
| 20260505055504 | 46 | 130 | 3.0 | 7.0 | 0.01 | 0.09 | 0.09 | 87 | 1006.4 |
| 20260505055404 | 46 | 134 | 2.0 | 5.0 | 0.01 | 0.09 | 0.09 | 87 | 1006.4 |
| 20260505055205 | 46 | 130 | 2.0 | 5.0 | 0.01 | 0.09 | 0.09 | 87 | 1006.3 |